GFSGBSN_prec_radar_087.txt.gz
Reflectivity
4 -20 -20 2 10 1 -20 -20 -20 -20 -20 -8 14 -1 15 -20 -0 6 -20 3 -10 -20 -20 -20 -20 -20 -20 -20 -14 -20 -20 -20 7 -11 26 13 25 27 13 -20 13 18 23 24 12 -10 20
20 13 3 9 -4 5 -20 2 -2 -20 -20 -9 -4 7 6 11 -20 14 -20 -20 6 15 -20 -20 -20 -20 -20 -20 -20 -20 -20 -20 13 -20 3 7 33 8 -10 5 10 -20 -15 17 29 9 6
15 23 17 -11 11 15 11 8 -2 -20 -20 -20 9 -10 -11 12 14 13 -16 -20 5 -5 -20 -20 -20 -20 -20 -20 -20 -20 -20 -20 -20 -12 20 25 31 25 29 22 -20 -20 -20 -9 27 14 27
21 19 25 20 10 9 8 12 -6 4 -20 -20 -6 1 -13 10 -15 5 -20 -20 -20 -20 -20 -20 -20 -20 -20 -20 -20 -20 -20 -13 -20 -20 19 23 43 30 36 17 -20 -4 14 23 24 27 24
23 23 22 26 16 12 12 13 -5 -7 -20 -10 -13 -1 11 9 13 2 -20 -20 -20 -20 -20 -20 -20 -20 -20 -20 -20 -20 -20 -17 -20 -13 11 27 27 18 37 12 7 17 9 9 25 18 20
8 19 20 23 22 0 -5 -5 4 -17 -20 -20 -6 -2 11 -8 -20 9 -20 -20 -20 -20 -20 -20 -20 -20 -20 -13 -20 -20 -20 -20 -2 10 -2 11 6 -4 30 15 4 -7 6 14 -5 6 32
17 9 23 21 23 2 14 26 -4 -7 -20 -20 -16 3 16 4 0 -6 -20 -20 -20 -20 -20 -20 -20 -20 -20 -20 -20 -20 -20 -20 -7 5 3 29 14 28 23 -18 -20 -20 -7 -3 3 11 27
21 11 16 22 21 30 27 20 -10 2 -20 -20 -19 6 11 11 7 12 -20 -20 -20 -20 -20 -20 -20 -20 -20 -20 -15 -16 -20 -20 12 20 32 26 -1 16 17 -9 -19 10 1 9 6 13 17
11 20 2 14 -2 23 26 23 -2 7 -20 -20 -20 2 11 2 -15 -20 -20 -9 -20 -20 -20 -20 -20 -20 -20 -10 -20 -20 -20 -20 3 25 30 2 14 11 -7 -10 -12 1 12 7 16 21 15
-18 22 14 16 15 29 28 26 2 8 -20 -20 -20 -13 8 4 -20 -20 -2 -20 -20 -20 -20 -17 -3 -11 1 24 -20 -20 -20 -20 23 30 32 23 25 13 -20 -20 -20 -20 -20 -20 2 1 30
7 24 6 22 8 20 32 25 10 9 -20 -20 -19 -12 7 -19 -20 -10 -16 -20 -20 -20 -20 -18 -20 -20 -20 -4 -20 -20 -20 -15 17 32 30 33 -7 -20 -20 -20 -20 -2 -20 -19 31 29 27
5 8 18 30 8 22 38 30 10 5 -20 -20 -20 -20 -8 -20 -20 -20 -20 -20 -20 -20 -20 -20 -20 -20 -9 9 14 -19 -3 -20 14 18 18 19 -3 18 4 -20 9 -20 -11 8 27 21 -20
11 21 30 30 12 25 35 30 12 -1 -16 -20 -20 -20 -20 -20 -5 -20 -20 -20 -20 -20 -20 -20 -20 -20 -20 -20 14 -19 -10 -19 -8 -9 25 22 34 5 -20 -20 -9 33 13 18 3 -20 -20
26 27 2 40 18 33 38 30 18 -20 -10 -20 -20 -20 -20 -20 -20 -20 -20 -20 -20 -20 -20 -20 -20 -20 -20 -20 -20 -20 -20 -20 -20 -20 -17 -20 -20 -20 -20 -20 18 21 -18 -20 -20 -20 -20
33 17 22 39 7 32 36 30 12 -16 -3 -20 -20 -20 -20 -20 -20 -20 -20 -20 -20 -20 -20 -20 -20 -20 -20 -20 -20 -20 -20 -20 -20 -20 -20 -20 -20 -20 -20 -20 -20 -20 -20 -20 -20 -20 -20
24 30 36 39 16 32 31 27 -6 -12 0 -20 -20 -17 -20 -20 -20 -20 -20 -20 -20 -20 -20 -20 -14 -20 -20 -20 -20 -20 -20 -20 -20 -20 -20 -20 -19 -20 -20 -20 -20 -20 -20 -20 -20 -20 -20
36 33 30 33 29 36 28 31 10 -18 -3 -20 -20 -1 -20 -20 -20 -20 -20 -20 -20 -20 -20 -20 -20 -20 -20 -20 -20 -20 -20 -20 -20 -20 -20 -20 -20 -19 -20 -20 -20 -20 -20 -20 -20 -20 -20
31 36 35 36 29 33 28 28 -3 -17 -10 -20 -20 -20 -20 -20 -20 -20 -20 -20 -20 -20 -20 -20 -20 -20 -20 -20 -20 -20 -20 -20 -20 -20 -20 -20 -20 -3 -20 -20 -20 -20 -20 -20 -20 -20 -20
27 37 33 36 38 29 31 29 9 -13 -12 -20 -20 -20 -20 -20 -20 -20 -20 -20 -20 -20 -20 -20 -20 -20 -20 -20 -6 -20 -20 -20 -20 -20 -20 -20 -20 -20 -20 -20 -20 -20 -20 -20 -20 -20 -20
28 38 40 36 35 30 30 25 -3 9 -15 -20 -20 -20 -13 -20 -20 -20 -20 -20 -20 -20 -20 -20 -20 -20 -20 -20 -20 -20 -20 -20 -20 -20 -20 -20 -20 -20 -20 -20 -20 -20 -20 -20 -20 -20 -20
21 36 33 37 36 35 31 24 2 8 -20 -20 -20 -20 -20 -20 -20 -20 -20 -20 -20 -20 -20 -20 -20 -20 -20 -20 -20 -20 -20 -20 -20 -20 -20 -20 -20 -20 -20 -20 -20 -20 -20 -20 -20 -20 -20
31 37 38 41 36 37 31 17 19 -1 -20 -20 -20 -20 -20 -20 -20 -20 -20 -20 -20 -20 -20 -20 -20 -20 -20 -20 -20 -20 -20 -20 -20 -20 -20 -20 -20 -20 -20 -20 -20 -20 -20 -20 -20 -20 -20
22 32 29 29 35 34 31 0 18 3 -20 -18 -18 -20 -20 -20 -20 -20 -20 -20 -20 -20 -20 -20 -20 -20 -20 -20 -20 -20 -20 -20 -20 -20 -20 -20 -20 -20 -20 -20 -20 -20 -20 -20 -20 -20 -20
30 34 30 22 32 35 28 -7 19 -3 -17 -20 -17 -20 -20 -20 -20 -20 -20 -20 -20 -20 -20 -20 -20 -20 -20 -20 -20 -20 -20 -20 -20 -20 -20 -20 -20 -20 -20 -20 -20 -20 -20 -20 -20 -20 -20
27 30 36 40 36 33 34 33 9 -8 -19 -6 -2 -12 -20 -20 -20 -20 -20 -20 -20 -20 -20 -20 -20 -20 -20 -20 -20 -20 -20 -20 -20 -20 -20 -20 -20 -20 -20 -20 -20 -20 -20 -20 -20 -20 -20
25 36 29 30 26 37 36 28 -6 16 -20 -20 -1 -7 -20 -20 -20 -20 -20 -20 -20 -20 -20 -20 -20 -20 -20 -20 -20 -20 -20 -20 -20 -20 -20 -20 -20 -20 -20 -20 -20 -20 -20 -20 -20 -20 -20
10 36 34 33 19 31 35 19 18 19 -6 10 -20 -20 -20 -20 -20 -20 -20 -20 -20 -20 -20 -20 -20 -20 -20 -20 -20 -20 -20 -20 -20 -20 -20 -20 -20 -20 -20 -20 -20 -20 -20 -20 -20 -20 -20
-8 31 33 30 22 26 32 27 34 18 1 -2 -20 -20 -19 -3 -20 -20 -20 -20 -20 -20 -20 -20 -20 -20 -20 -20 -20 -20 -20 -20 -20 -20 -20 -20 -20 -20 -20 -20 -20 -20 -20 -20 -20 -20 -20
6 34 39 30 25 27 31 31 36 24 -19 -18 -20 -20 -8 -20 -20 -20 -20 -20 -20 -20 -20 -20 -20 -20 -20 -20 -20 -20 -20 -20 -20 -20 -20 -20 -20 -20 -20 -20 -19 -20 -20 -20 -20 -20 -20

GFSGBSN_prec_radar_090.txt.gz
Reflectivity
21 0 17 20 26 21 18 18 9 -8 -20 -20 -20 -15 2 -20 14 10 14 -20 -9 -1 -0 -20 -20 -20 -20 -20 -20 -20 -20 -20 -20 -20 6 22 -13 -5 15 -14 8 14 26 28 15 -20 24
11 20 16 12 21 24 26 29 18 2 4 -20 -20 -16 -20 -14 6 13 6 -20 -20 10 21 -20 -15 -20 -20 -20 -20 -20 -20 -20 -20 3 15 23 -20 -20 15 -5 10 -18 9 27 44 12 22
14 -0 20 20 -17 23 23 30 19 12 11 -20 -19 -20 -20 -11 -15 -19 16 -20 -20 -7 4 -20 -20 -20 -20 -20 -20 -20 -20 -16 -20 -20 5 17 20 31 22 11 -20 -20 6 -19 7 31 17
9 13 8 15 18 22 24 24 30 23 2 -18 -20 -20 -20 -1 -12 -7 -20 -20 0 -20 -20 -20 -20 -20 -20 -20 -20 -20 -20 -20 -20 -20 3 15 30 16 36 23 -20 -20 26 27 27 43 13
8 18 7 1 7 20 21 12 24 23 9 -14 -20 -20 -20 -20 -20 -15 -20 -20 -20 -20 -20 -20 -20 -20 -20 -20 -20 -20 -20 -20 -20 11 -20 5 25 38 6 19 -0 5 12 23 34 30 27
-7 -3 16 5 9 21 24 19 15 27 21 3 -20 -20 -20 -20 -20 -20 -20 -20 -20 -20 -20 -20 -20 -20 -20 -20 -20 -20 -20 -20 2 -4 12 25 28 36 16 13 10 -8 19 15 34 33 29
-1 -1 -10 17 -4 15 27 15 29 26 22 6 -20 -20 -20 -20 -20 -20 -20 -20 -20 -20 -20 -20 -20 -20 -20 -20 -20 -20 -20 -20 -20 3 -20 13 -10 -8 21 35 -20 -20 -11 -4 -4 13 8
-20 -17 -3 -3 15 15 24 23 29 31 26 10 -19 -14 -20 -20 -20 5 -20 -20 -20 -20 -20 -20 -20 -20 -20 -20 -17 -13 -20 12 14 16 19 15 -1 28 31 22 8 19 -20 11 10 12 -19
-20 -8 4 -2 9 7 25 14 32 32 28 6 -20 -7 -20 -20 -20 -20 -20 -20 -20 -20 -20 -20 -20 -20 -20 0 -20 -20 -9 19 28 27 20 -3 6 26 31 18 -3 12 -20 -9 23 35 12
-7 -1 9 0 9 7 14 29 26 28 27 6 -2 -0 -20 -20 -20 -20 -20 -20 -20 -20 -20 -20 -20 -20 -20 -20 -20 -13 -20 25 36 30 27 7 -12 -20 38 -5 -20 -20 -20 1 -16 15 30
-1 3 4 3 17 11 24 30 32 31 31 13 9 -4 -20 -20 -20 -20 -20 -20 -20 -20 -20 -20 -20 -20 -20 -3 -20 -20 12 15 22 23 6 21 8 3 -15 -17 -20 -11 -13 -15 -6 18 33
-13 13 7 10 10 25 19 33 11 28 30 15 9 -13 -20 -20 -20 -20 -20 -20 -20 -20 -20 -20 -20 -20 -20 -8 -20 -6 6 27 30 13 -6 -0 -20 -20 -20 -20 -20 6 17 19 -2 20 10
6 0 14 12 13 19 7 36 12 27 30 16 12 -20 -20 -20 -20 -20 -20 -20 -20 -20 -20 -20 -20 -20 -20 -20 -20 -20 -11 -11 18 -7 -15 -16 17 -15 -20 -14 -20 -1 -8 17 14 27 -13
6 13 7 8 24 3 19 34 8 30 29 16 9 -20 -20 -20 -20 -20 -20 -20 -20 -20 -20 -20 -20 -20 -20 -20 -20 -20 -20 28 -20 -20 -20 18 9 -2 -16 -19 23 -20 -15 -11 11 2 -20
24 25 24 25 18 17 30 33 19 34 29 14 2 -20 -20 -20 -20 -20 -20 -20 -20 -20 -20 -20 -20 -20 -20 -20 -20 -20 -20 -20 -20 -20 -20 -20 -20 -20 -20 -14 31 2 -13 -20 1 -20 -20
32 37 28 21 30 25 28 33 26 33 23 17 -8 -20 -20 -20 -20 -20 -20 -20 -20 -20 -20 -20 -20 -20 -20 -20 -20 -20 -20 -20 -20 -20 -20 -20 -20 -20 -20 -20 -20 -1 -9 -20 -20 -20 -20
33 34 31 30 29 25 33 32 37 28 19 18 -20 -20 -20 -20 -20 -20 -20 -20 -20 -20 -20 -20 -20 -20 -20 -20 -20 -20 -20 -20 -20 -20 -20 -20 -20 -20 -20 -20 -20 -20 -20 -20 -20 -20 -20
27 33 24 27 15 29 38 34 34 29 11 11 -20 -14 -20 -20 -20 -20 -20 -20 -20 -20 -20 -20 -20 -20 -20 -20 -20 -20 -20 -20 -20 -20 -20 -20 -20 -20 -20 -20 -20 -20 -20 -20 -20 -20 -20
18 35 28 24 23 32 37 36 29 26 7 -1 -20 -15 -20 -20 -20 -20 -20 -20 -20 -20 -20 -20 -20 -20 -20 -20 -20 -20 -20 -20 -20 -20 -20 -20 -20 -20 -20 -20 -20 -20 -20 -20 -20 -20 -20
19 36 33 38 42 36 37 34 26 15 17 -17 -20 -10 -10 -20 -20 -20 -20 -20 -20 -20 -20 -20 -20 -20 -20 -20 -20 -20 -20 -20 -20 -20 -20 -20 -20 -20 -20 -20 -20 -20 -20 -20 -20 -20 -20
25 35 35 30 28 39 35 34 30 -2 21 -20 -11 -20 -20 -20 -20 -20 -20 -20 -20 -20 -20 -20 -20 -20 -20 -20 -20 -20 -20 -20 -20 -20 -20 -20 -20 -20 -20 -20 -20 -20 -20 -20 -20 -20 -20
21 36 39 38 42 38 37 35 23 20 18 -20 -8 -20 -20 -20 -20 -20 -20 -20 -20 -20 -20 -20 -20 -20 -20 -20 -20 -20 -20 -20 -20 -20 -20 -20 -20 -20 -20 -20 -20 -20 -20 -20 -20 -20 -20
13 28 33 36 33 41 37 33 15 19 12 -3 -4 -20 -20 -20 -20 -20 -20 -20 -20 -20 -20 -20 -20 -20 -20 -20 -20 -20 -20 -20 -20 -20 -20 -20 -20 -20 -20 -20 -20 -20 -20 -20 -20 -20 -20
24 28 28 34 29 24 36 30 31 15 -0 -8 -14 -20 -20 -20 -20 -20 -20 -20 -20 -20 -20 -20 -20 -20 -20 -20 -20 -20 -20 -20 -20 -20 -20 -20 -20 -20 -20 -20 -20 -20 -20 -20 -20 -20 -20
24 29 34 30 36 30 28 30 34 17 3 -1 -0 -20 -20 -20 -20 -20 -20 -20 -20 -20 -20 -20 -20 -20 -20 -20 -20 -20 -20 -20 -20 -20 -20 -20 -20 -20 -20 -20 -20 -20 -20 -20 -20 -20 -20
17 26 31 25 34 31 21 29 14 14 14 -20 11 -20 -20 -20 -20 -20 -20 -20 -20 -20 -20 -20 -20 -20 -20 -20 -20 -20 -20 -20 -20 -20 -20 -20 -20 -20 -20 -20 -20 -20 -20 -20 -20 -20 -20
13 10 18 6 34 21 27 30 2 -14 18 -18 14 -7 -14 -20 -20 -20 -20 -20 -20 -20 -20 -20 -20 -20 -20 -20 -20 -20 -20 -20 -20 -20 -20 -20 -20 -20 -20 -20 -20 -20 -20 -20 -20 -20 -20
9 14 1 16 36 34 30 24 12 4 -6 5 -9 22 1 -20 -20 -20 -20 -20 -20 -20 -20 -20 -20 -20 -20 -20 -20 -20 -20 -20 -20 -20 -20 -20 -20 -20 -20 -20 -20 -20 -20 -20 -20 -20 -20
16 14 7 21 33 34 27 9 23 6 9 -20 14 -8 -11 -20 -7 -20 -20 -20 -20 -20 -20 -20 -20 -20 -20 -20 -20 -20 -20 -20 -20 -20 -20 -20 -20 -20 -20 -20 -20 -20 -20 -20 -20 -20 -20

GFSGBSN_prec_radar_093.txt.gz
Reflectivity
7 -5 2 -7 15 25 21 25 22 24 29 21 11 -20 -20 -20 -13 -0 -20 10 -20 -16 16 -20 -20 -20 -20 -20 -20 -20 -20 -20 -20 -20 -20 -20 4 -1 8 -20 -20 12 7 4 25 22 17
3 -20 11 12 15 4 25 24 28 22 30 28 12 -20 -20 -20 -17 -13 -12 9 -20 -20 9 -3 -20 -20 -20 -20 -20 -20 -20 -20 -20 10 -20 12 -16 -18 -0 5 11 -20 -20 9 3 40 15
-10 -4 -20 -10 13 10 12 14 25 28 24 29 19 10 -20 -20 -20 -20 -20 -18 -20 -20 -14 18 -20 -20 -20 -20 -20 -20 -20 -20 -20 -20 15 -7 24 25 -20 -9 -20 -18 7 8 6 35 35
-20 -20 -2 -13 -20 11 5 4 12 33 30 25 26 13 -19 -20 -20 -20 -4 -12 -20 -20 -20 -3 -20 -20 -20 -20 -20 -20 -20 -20 -20 -20 -20 -20 8 21 10 7 18 -15 -13 5 25 38 45
-20 -20 -20 -18 -20 -18 -5 2 22 22 24 28 23 21 -15 -20 -20 -20 -20 -20 -20 -7 -20 -20 -20 -20 -20 -20 -20 -20 -20 -20 -20 -20 2 -3 15 15 9 28 23 13 10 -17 21 34 32
-20 -20 -20 -20 -4 -7 1 7 11 34 24 26 23 23 17 -19 -7 -20 -20 -20 -20 -20 -20 -20 -20 -20 -20 -20 -20 -20 -20 -20 -20 -17 14 11 34 26 27 18 13 5 11 4 15 25 41
-20 -20 -15 -20 -20 1 -5 10 -8 19 33 18 27 21 21 -11 -0 -20 -20 -20 -20 -20 -20 -20 -20 -20 -20 -20 -20 -20 -20 -20 -20 -14 24 7 21 14 41 -4 10 -20 -20 -14 3 13 31
-20 -20 -20 -20 9 -13 -2 -2 -4 -8 35 21 28 20 30 12 -13 -20 -20 -20 -20 -20 -20 -20 -20 -20 -20 -20 -20 -20 -18 -16 -2 15 14 16 21 16 25 30 -20 -20 12 -13 8 27 27
-20 -20 -20 -20 -20 -3 -3 -13 4 13 33 30 17 32 29 20 -20 -20 -20 -20 -20 -20 -20 -20 -20 -20 -20 -20 -20 9 17 4 16 17 26 -2 2 -20 -19 19 -12 -20 19 -9 13 34 7
-20 -20 -20 -20 -20 11 4 1 0 16 30 29 29 32 24 12 -20 -20 -20 -20 -20 -20 -20 -20 -20 -20 -20 -20 -20 -18 24 30 35 26 21 14 9 28 36 19 -20 -20 8 23 -1 3 -3
-20 -20 -11 -20 6 -4 -0 7 5 18 35 29 29 32 22 -16 -20 -20 -20 -20 -20 -20 -20 -20 -20 -20 -20 -20 -20 4 20 17 25 16 6 21 23 34 32 13 12 -20 -20 -6 -2 -14 31
-6 -20 -14 -20 8 6 2 4 10 18 34 36 33 31 20 -18 -20 -20 -20 -20 -20 -20 -20 -20 -20 -20 -20 -20 3 24 27 9 1 15 21 21 22 21 12 -9 5 -20 -20 -7 -11 -10 20
20 -1 25 24 17 12 12 -8 13 22 33 34 32 28 13 -20 -20 -20 -20 -20 -20 -20 -20 -20 -20 -20 -20 -20 -20 -14 -2 17 25 -0 16 -8 -19 16 15 2 0 19 -11 -7 -8 4 -10
25 20 29 35 11 20 9 -20 14 29 31 30 34 30 7 -20 -20 -20 -20 -20 -20 -20 -20 -20 -20 -20 -20 -20 -20 -20 -20 -20 -20 -20 -20 -11 -20 -7 -19 6 21 19 -20 -20 -19 -19 -20
24 20 27 30 31 24 8 13 21 34 30 36 31 22 -8 -20 -20 -20 -20 -20 -20 -20 -20 -20 -20 -20 -20 -20 -20 -20 -20 -20 -20 -20 -20 -20 11 -16 -20 -17 -8 -20 -20 0 -19 -20 -20
22 21 14 24 32 23 24 23 30 27 33 31 31 17 -20 -20 -20 -20 -20 -20 -20 -20 -20 -20 -20 -20 -20 -20 -20 -20 -20 -20 -20 -20 -20 -20 -20 -20 -20 1 -0 -20 -20 -20 -20 -20 -20
18 16 11 26 35 27 29 -10 27 29 30 34 32 6 -14 -20 -20 -20 -20 -20 -20 -20 -20 -20 -20 -20 -20 -20 -20 -20 -20 -20 -20 -20 -20 -20 -20 -20 -20 -20 -0 -18 -20 -20 -20 -20 -20
11 -14 11 33 35 33 -9 10 25 25 34 33 24 -6 -20 -20 -20 -20 -20 -20 -20 -20 -20 -20 -20 -20 -20 -20 -20 -20 -20 -20 -20 -20 -20 -20 -20 -20 -20 -20 -20 -20 -20 -20 -20 -20 -20
11 -10 -0 20 23 10 12 26 26 31 31 30 28 -2 -20 -20 -20 -20 -20 -20 -20 -20 -20 -20 -20 -20 -20 -20 -20 -20 -20 -20 -20 -20 -20 -20 -20 -20 -20 -20 -20 -20 -20 -20 -20 -20 -20
13 5 10 20 10 -2 20 25 30 33 36 26 12 -3 -4 -20 -20 -20 -20 -20 -20 -20 -20 -20 -20 -20 -20 -20 -20 -20 -20 -20 -20 -20 -20 -20 -20 -20 -20 -20 -20 -20 -20 -20 -20 -20 -20
12 9 15 19 14 15 10 17 34 37 34 15 5 -20 -20 -20 -15 -20 -20 -20 -20 -20 -20 -20 -20 -20 -20 -20 -20 -20 -20 -20 -20 -20 -20 -20 -20 -20 -20 -20 -20 -20 -20 -20 -20 -20 -20
18 20 28 27 29 24 30 30 37 36 27 18 -2 -20 -20 -20 -20 -20 -20 -20 -20 -20 -20 -20 -20 -20 -20 -20 -20 -20 -20 -20 -20 -20 -20 -20 -20 -20 -20 -20 -20 -20 -20 -20 -20 -20 -20
17 24 30 36 38 40 39 38 37 31 22 18 -19 -20 -20 -20 -20 -20 -20 -20 -20 -20 -20 -20 -20 -20 -20 -20 -20 -20 -20 -20 -20 -20 -20 -20 -20 -20 -20 -20 -20 -20 -20 -20 -20 -20 -20
8 29 29 32 33 31 35 37 36 17 17 10 -12 -20 -20 -20 -20 -20 -20 -20 -20 -20 -20 -20 -20 -20 -20 -20 -20 -20 -20 -20 -20 -20 -20 -20 -20 -20 -20 -20 -20 -20 -20 -20 -20 -20 -20
16 29 32 29 23 28 15 31 29 25 14 -6 -20 -20 -20 -20 -20 -20 -20 -20 -20 -20 -20 -20 -20 -20 -20 -20 -20 -20 -20 -20 -20 -20 -20 -20 -20 -20 -20 -20 -20 -20 -20 -20 -20 -20 -20
-5 21 26 24 26 34 28 27 25 18 12 7 -19 -20 -20 -20 -20 -20 -20 -20 -20 -20 -20 -20 -20 -20 -20 -20 -20 -20 -20 -20 -20 -20 -20 -20 -20 -20 -20 -20 -20 -20 -20 -20 -20 -20 -20
-15 12 21 21 27 30 32 30 26 17 -2 13 -12 -20 -20 -20 -20 -20 -20 -20 -20 -20 -20 -20 -20 -20 -20 -20 -20 -20 -20 -20 -20 -20 -20 -20 -20 -20 -20 -20 -20 -20 -20 -20 -20 -20 -20
5 5 2 10 22 33 27 27 18 16 25 17 -8 -20 -20 -20 -20 -20 -20 -20 -20 -20 -20 -20 -20 -20 -20 -20 -20 -20 -20 -20 -20 -20 -20 -20 -20 -20 -20 -20 -20 -20 -20 -20 -20 -20 -20
6 6 -3 -20 26 21 21 26 8 10 13 4 17 -20 -20 -20 -20 -20 -20 -20 -20 -20 -20 -20 -20 -20 -20 -20 -20 -20 -20 -20 -20 -20 -20 -20 -20 -20 -20 -20 -20 -20 -20 -20 -20 -20 -20

GFSGBSN_prec_radar_096.txt.gz
Reflectivity
-5 -5 10 11 8 -18 -2 -8 5 9 23 20 25 25 28 17 11 5 -5 -20 -20 -12 -20 9 -8 -14 -20 -20 -20 -20 -20 -20 -20 -20 -20 -20 -20 2 0 -19 -20 9 -20 -7 -20 -20 -16
-20 -9 -20 -20 -20 11 7 -11 -5 1 15 35 22 14 26 24 28 8 -20 -4 -3 -20 -20 -8 -20 -20 -20 -20 -20 -20 -20 -20 -20 -20 -20 -20 -20 -20 7 -20 -7 -20 -20 -20 -20 1 22
-19 -2 -20 -20 -20 -20 -18 -20 -20 -15 6 20 29 28 21 31 29 11 -20 2 -14 -20 -20 -7 -3 -20 -20 -20 -20 -20 -20 -20 -20 -20 -20 9 11 25 14 20 -20 -17 6 -20 -20 -6 23
-20 -20 -20 -20 -20 -20 -20 -19 6 5 8 13 31 12 25 11 31 15 -1 -1 -20 -20 -20 -20 -5 -20 -20 -20 -20 -20 -20 -20 -20 -20 -20 15 5 27 1 -1 24 -16 -13 13 -20 15 21
5 6 -2 -20 -20 -20 -20 -20 -19 2 -8 4 31 26 21 19 31 5 10 -20 -20 -20 -20 -20 -20 -20 -20 -20 -20 -20 -20 -20 -20 -20 -20 6 -3 25 -14 14 7 20 -15 -8 -10 9 33
-19 -16 -10 -19 -20 -20 -20 -20 -20 -4 3 -4 20 34 33 29 34 19 -0 -20 -20 -20 -20 -20 -20 -20 -20 -20 -20 -20 -20 -20 -20 -20 -0 25 32 11 4 6 -5 -9 5 -4 -2 10 29
-18 5 -20 -20 -20 -20 -20 -20 1 -6 5 1 29 29 26 32 32 20 -10 -20 -20 -20 -20 -20 -20 -20 -20 -20 -20 -20 -20 -20 -20 -20 4 31 28 4 -19 -8 0 -11 -20 4 21 26 22
16 7 6 -20 -20 -20 -20 -18 3 -5 -15 3 26 13 32 28 31 12 -20 -20 -20 -20 -20 -20 -20 -20 -20 -20 -20 -20 -20 -20 -7 -18 -16 5 -7 -2 -0 -2 21 -16 19 17 14 -13 27
4 1 -20 -20 -20 -20 -20 -20 -20 -19 2 5 27 17 37 33 30 3 -20 -20 -20 -20 -20 -20 -20 -20 -20 -20 -20 -17 -5 -20 -20 3 -4 4 -2 -20 19 20 23 -20 1 4 -5 14 27
17 18 -17 -20 3 -20 -20 -20 -3 -5 -3 -8 26 21 32 31 28 -8 -20 -20 -20 -20 -20 -20 -20 -20 -20 -20 -20 -20 -5 19 22 11 22 29 -4 3 41 15 6 -20 -19 23 -6 38 16
21 6 11 -4 6 11 -4 5 14 6 -17 7 26 21 30 35 31 -12 -20 -20 -20 -20 -20 -20 -20 -20 -20 -18 15 8 10 19 6 24 30 32 18 -2 25 11 20 -20 21 15 -5 2 6
17 13 20 17 9 11 2 -7 13 12 -4 6 30 21 33 35 17 -18 -20 -20 -20 -20 -20 -20 -20 -20 -20 -20 -10 -12 -17 -1 33 23 28 43 30 39 8 -13 -10 -20 -16 7 4 2 10
17 19 16 16 23 17 29 -0 10 7 -4 16 32 23 33 35 14 -20 -20 -20 -20 -20 -20 -20 -20 -20 -20 -20 -20 -20 -14 -18 -9 -16 -20 22 13 14 19 -1 14 25 -20 -20 -20 -5 -2
16 19 20 21 22 18 -1 -1 -11 -3 10 6 31 32 33 36 -1 -20 -20 -20 -20 -20 -20 -20 -20 -20 -20 -20 -20 -20 -20 -20 -20 -20 -20 -19 16 3 -15 -19 21 -17 -20 -20 -20 -20 -17
19 16 23 21 16 21 23 27 26 14 14 28 29 35 32 27 -10 -20 -20 -20 -20 -20 -20 -20 -20 -20 -20 -20 -20 -20 -20 -20 -20 -20 -20 -20 15 -18 15 -2 24 14 -20 -20 -20 -20 -13
9 18 20 12 12 24 36 35 22 20 15 31 32 32 38 12 -19 -20 -20 -20 -20 -20 -20 -20 -20 -20 -20 -20 -20 -20 -20 -20 -20 -20 -20 -20 -17 -13 -8 -5 -15 -19 -20 -20 -20 -20 -19
22 -3 0 5 20 20 28 26 16 27 28 23 32 35 33 -9 -20 -20 -20 -20 -20 -20 -20 -20 -20 -20 -20 -20 -20 -20 -20 -20 -20 -20 -20 -20 -20 -20 -20 16 -20 -16 -20 -20 -20 -20 -20
15 -3 6 1 22 17 19 19 17 14 29 34 28 32 21 -20 -19 -19 -20 -20 -20 -20 -20 -20 -20 -20 -20 -20 -20 -20 -20 -20 -20 -20 -20 -20 -20 -20 -20 -20 -20 -20 -20 -20 -20 -20 -20
11 4 2 3 32 28 22 30 9 16 29 22 28 32 8 -15 -20 -20 -20 -20 -20 -20 -20 -20 -20 -20 -20 -20 -20 -20 -20 -20 -20 -20 -20 -20 -20 -20 -20 -20 -20 -20 -20 -20 -20 -20 -20
-18 14 6 21 16 19 14 14 0 10 28 21 26 29 -9 4 -20 -20 -20 -20 -20 -20 -20 -20 -20 -20 -20 -20 -20 -20 -20 -20 -20 -20 -20 -20 -20 -20 -20 -20 -20 -20 -20 -20 -20 -20 -20
10 8 31 24 19 -1 3 -3 10 25 18 28 26 13 -20 -13 -9 -20 -20 -20 -20 -20 -20 -20 -20 -20 -20 -20 -20 -20 -20 -20 -20 -20 -20 -20 -20 -20 -20 -20 -20 -20 -20 -20 -20 -20 -20
11 32 34 29 32 8 13 -4 32 29 28 24 13 -20 -20 -20 -20 -20 -20 -20 -20 -20 -20 -20 -20 -20 -20 -20 -20 -20 -20 -20 -20 -20 -20 -20 -20 -20 -20 -20 -20 -20 -20 -20 -20 -20 -20
-2 24 15 11 34 6 19 33 32 27 25 28 -3 -20 -20 6 -20 -20 -20 -20 -20 -20 -20 -20 -20 -20 -20 -20 -20 -20 -20 -20 -20 -20 -20 -20 -20 -20 -20 -20 -20 -20 -20 -20 -20 -20 -20
-20 22 23 18 19 21 28 31 34 29 26 18 -20 -20 -20 -20 -20 -20 -20 -20 -20 -20 -20 -20 -20 -20 -20 -20 -20 -20 -20 -20 -20 -20 -20 -20 -20 -20 -20 -20 -20 -20 -20 -20 -20 -20 -20
-19 8 3 27 26 24 15 24 28 26 24 -16 -20 -20 -20 -20 -20 -20 -20 -20 -20 -20 -20 -20 -20 -20 -20 -20 -20 -20 -20 -20 -20 -20 -20 -20 -20 -20 -20 -20 -20 -20 -20 -20 -20 -20 -20
-20 -3 -13 10 26 25 24 18 26 6 3 1 -20 -20 -20 -20 -20 -20 -20 -20 -20 -20 -20 -20 -20 -20 -20 -20 -20 -20 -20 -20 -20 -20 -20 -20 -20 -20 -20 -20 -20 -20 -20 -20 -20 -20 -20
-20 -20 10 -11 15 9 15 20 23 8 17 4 -20 -20 -20 -20 -20 -20 -20 -20 -20 -20 -20 -20 -20 -20 -20 -20 -20 -20 -20 -20 -20 -20 -20 -20 -20 -20 -20 -20 -20 -20 -20 -20 -20 -20 -20
-13 -20 -4 6 22 10 5 9 0 -3 22 -8 -20 -20 -20 -20 -20 -20 -20 -20 -20 -20 -20 -20 -20 -20 -20 -20 -20 -20 -20 -20 -20 -20 -20 -20 -20 -20 -20 -20 -20 -20 -20 -20 -20 -20 -20
-7 -17 -20 8 12 1 14 11 10 -20 9 -10 -20 -20 -20 -20 -20 -20 -20 -20 -20 -20 -20 -20 -20 -20 -20 -20 -20 -20 -20 -20 -20 -20 -20 -20 -20 -20 -20 -20 -20 -20 -20 -20 -20 -20 -20

GFSGBSN_prec_radar_099.txt.gz
Reflectivity
16 -16 2 8 -20 -20 4 12 8 -14 -20 -13 -0 24 22 11 14 6 23 19 7 -5 -8 13 -18 -0 -20 -20 -20 -20 -20 -20 -20 -20 -20 -20 -20 -20 -20 -20 -20 -17 -20 -20 -20 -20 -20
12 6 14 -20 -20 -15 -20 -20 -19 -17 -19 -1 2 13 24 19 33 7 27 17 17 10 10 15 -20 -20 -20 -20 -20 -20 -20 -20 -20 -20 -20 -20 -20 -20 -20 -20 3 -20 -20 -20 -20 -4 -11
20 15 7 9 9 1 -20 -20 -5 -20 -20 -6 -20 -1 23 21 32 25 23 22 12 18 2 13 -18 -20 -20 -20 -20 -20 -20 -20 -20 -20 -20 -20 -20 -20 15 -20 -20 -20 11 10 -20 -18 14
13 18 20 12 15 15 17 -19 -20 -20 -20 -20 -18 11 29 26 22 23 32 25 17 14 9 12 -4 -20 -20 -20 -20 -20 -20 -20 -20 -20 -20 -20 -6 -5 9 13 -12 -19 -9 9 -20 -20 13
18 18 19 16 23 5 6 -3 -20 -20 -20 -19 -20 -3 19 22 26 35 30 30 21 13 -4 9 -20 -20 -20 -20 -20 -20 -20 -20 -20 -20 -20 -2 2 30 36 22 -3 24 15 7 -9 -20 -20
8 16 -11 -0 18 -6 6 4 -14 -20 -20 -20 -18 10 19 22 24 31 30 30 17 3 -20 -20 -20 -20 -20 -20 -20 -20 -20 -20 -20 -20 11 16 24 28 22 23 -7 25 -13 19 19 7 -20
17 18 16 11 1 7 4 -1 -19 -11 -18 -20 -20 8 28 7 19 31 32 24 6 -1 -20 -20 -20 -20 -20 -20 -20 -20 -20 -20 -20 -9 -10 5 22 12 -20 -20 -3 35 -15 -20 5 28 5
-2 -13 5 16 16 5 -1 -14 -20 -2 -8 -20 0 -6 27 19 19 22 30 13 3 -20 -20 -20 -20 -20 -20 -20 -20 -20 -20 -20 7 -19 -20 4 6 1 -20 -20 -16 25 -19 17 22 16 -19
8 17 14 8 13 20 -1 13 -20 -20 9 -0 12 -11 27 21 19 33 34 5 2 -20 -20 -20 -20 -20 -20 -20 -20 -20 -17 -16 -15 -20 -10 5 20 14 31 0 20 -5 -20 20 -18 -11 -19
20 21 23 17 26 7 17 -15 9 -7 -14 -19 15 14 20 21 20 34 30 8 -3 -20 -20 -20 -20 -20 -20 -20 -20 -8 5 1 2 10 30 25 28 23 11 5 15 -19 7 -20 -20 -15 3
19 19 21 26 18 16 19 17 -20 8 -6 -20 16 4 26 17 8 32 21 3 -20 -20 -20 -20 -20 -20 -20 -19 10 -6 8 4 23 32 34 23 28 23 17 -20 -1 -20 -15 28 8 -20 7
17 23 25 19 19 16 16 5 5 4 -13 1 6 16 25 9 30 31 1 4 -20 -20 -20 -20 -20 -20 -20 -20 -1 -10 -19 6 19 40 26 25 10 15 -17 14 -20 -19 -20 20 13 -16 3
23 32 19 21 19 20 20 17 16 -17 16 8 -19 22 17 1 29 24 -5 -20 -20 -20 -20 -20 -20 -20 -20 -20 -20 -20 -20 -18 -19 17 12 33 21 2 5 11 -2 19 -20 -14 -20 -7 -1
29 27 24 15 20 18 28 29 -2 18 16 16 15 27 22 17 28 22 -16 -20 -20 -20 -20 -20 -20 -20 -20 -20 -20 -20 -20 -20 -20 -20 -20 -3 23 18 23 3 -5 15 -20 -20 -20 9 5
24 20 15 18 19 21 7 23 5 13 -20 -20 24 25 14 26 24 17 -20 -20 -20 -20 -20 -20 -20 -20 -20 -20 -20 -20 -20 -20 -20 -20 -20 -20 -13 27 -7 -20 -9 -20 -20 -20 -20 3 -20
16 12 14 13 16 12 9 33 33 21 -17 -12 32 15 26 23 24 -10 -20 -20 -20 -20 -20 -20 -20 -20 -20 -20 -20 -20 -20 -20 -20 -20 -20 -20 10 23 9 35 -15 -10 -20 -20 -20 -20 -20
15 16 18 20 15 4 21 38 9 28 17 29 17 24 29 22 19 -20 -20 -20 -20 -20 -20 -20 -20 -20 -20 -20 -20 -20 -20 -20 -20 -20 -20 -20 -16 -19 -20 -7 -20 -17 -20 -20 -20 -20 -20
21 21 8 16 28 21 19 10 11 19 25 20 19 31 28 16 7 -20 -20 -20 -20 -20 -20 -20 -20 -20 -20 -20 -20 -20 -20 -20 -20 -20 -20 -20 -20 -20 -20 -20 -20 -20 -20 -20 -20 -20 -20
11 14 18 22 27 26 26 21 -5 -19 -14 -15 22 25 28 22 -20 -20 -20 -20 -20 -20 -20 -20 -20 -20 -20 -20 -20 -20 -20 -20 -20 -20 -20 -20 -20 -20 -20 -20 -20 -20 -20 -20 -20 -20 -20
19 32 32 27 28 10 17 16 -2 -18 6 7 7 23 30 15 -20 -20 -20 -20 -20 -20 -20 -20 -20 -20 -20 -20 -20 -20 -20 -20 -20 -20 -20 -20 -20 -20 -20 -20 -20 -20 -20 -20 -20 -20 -20
24 36 28 9 10 -20 5 16 -16 -18 8 19 7 -0 8 -17 -14 -20 -20 -20 -20 -20 -20 -20 -20 -20 -20 -20 -20 -20 -20 -20 -20 -20 -20 -20 -20 -20 -20 -20 -20 -20 -20 -20 -20 -20 -20
7 29 14 -1 13 -20 14 19 -6 22 17 11 19 10 -20 -20 -20 -20 -20 -20 -20 -20 -20 -20 -20 -20 -20 -20 -20 -20 -20 -20 -20 -20 -20 -20 -20 -20 -20 -20 -20 -20 -20 -20 -20 -20 -20
-4 19 25 3 30 29 21 20 14 18 16 21 6 -20 -20 5 -20 -20 -20 -20 -20 -20 -20 -20 -20 -20 -20 -20 -20 -20 -20 -20 -20 -20 -20 -20 -20 -20 -20 -20 -20 -20 -20 -20 -20 -20 -20
3 13 34 7 27 20 19 16 5 19 18 11 -20 -20 -20 -19 -18 -20 -20 -20 -20 -20 -20 -20 -20 -20 -20 -20 -20 -20 -20 -20 -20 -20 -20 -20 -20 -20 -20 -20 -20 -20 -20 -20 -20 -20 -20
5 12 15 24 6 18 16 -3 -20 11 -15 -20 -20 -20 -20 -20 -20 -20 -20 -20 -20 -20 -20 -20 -20 -20 -20 -20 -20 -20 -20 -20 -20 -20 -20 -20 -20 -20 -20 -20 -20 -20 -20 -20 -20 -20 -20
-20 9 14 19 1 7 10 5 -12 -14 -20 -20 -20 -20 -20 -20 -20 -20 -20 -20 -20 -20 -20 -20 -20 -20 -20 -20 -20 -20 -20 -20 -20 -20 -20 -20 -20 -20 -20 -20 -20 -20 -20 -20 -20 -20 -20
-20 -16 17 14 14 -11 -13 2 -20 -20 -20 -20 -20 -20 -20 -20 -20 -20 -20 -20 -20 -20 -20 -20 -20 -20 -20 -20 -20 -20 -20 -20 -20 -20 -20 -20 -20 -20 -20 -20 -20 -20 -20 -20 -20 -20 -20
-20 -20 10 13 7 3 5 -2 -20 -20 -20 -20 -20 -20 -20 -20 -20 -20 -20 -20 -20 -20 -20 -20 -20 -20 -20 -20 -20 -20 -20 -20 -20 -20 -20 -20 -20 -20 -20 -20 -20 -20 -20 -20 -20 -20 -20
-20 -17 -20 11 6 9 -18 -20 -20 -20 -20 -20 -20 -20 -20 -20 -20 -20 -20 -20 -20 -20 -20 -20 -20 -20 -20 -20 -20 -20 -20 -20 -20 -20 -20 -20 -20 -20 -20 -20 -20 -20 -20 -20 -20 -20 -20

GFSGBSN_prec_radar_102.txt.gz
Reflectivity
13 13 -17 14 7 5 -12 -15 -20 -10 -15 -14 -11 -14 6 19 10 19 21 -4 19 13 8 -20 11 3 -4 2 -16 -20 -20 -20 -20 -20 -20 -20 -20 -20 -20 -20 -20 -20 -20 -20 -20 -20 -20
17 13 -8 -9 4 17 7 3 13 -20 -20 -20 -18 7 11 9 20 16 20 27 12 12 1 1 14 4 -9 -20 -20 -20 -20 -20 -20 -20 -20 -20 -20 -20 -20 -20 -20 -20 -20 -20 -20 -20 -20
-13 5 3 -19 -20 -20 -14 -19 -17 -20 0 -20 1 -5 12 13 21 19 16 17 13 25 7 13 18 -12 -20 -20 -20 -20 -20 -20 -20 -20 -20 -20 -20 -20 4 2 0 -20 -20 -17 -20 -20 -20
-2 17 12 18 14 9 -3 8 2 -17 6 -20 -17 -20 5 22 27 18 15 14 19 16 17 8 21 -20 -20 -20 -20 -20 -20 -20 -20 -20 -20 -20 -1 11 -4 -3 -19 20 -12 -7 -20 -20 -20
4 -9 20 18 13 21 8 1 6 7 -20 -20 -20 -20 -13 -12 19 -4 9 18 27 11 15 19 -20 -20 -20 -20 -20 -20 -20 -20 -20 -20 -20 -11 -0 -3 -20 13 16 16 -9 -6 -12 -20 -16
18 9 8 -5 9 13 11 -15 2 -18 9 -17 -20 -20 -20 16 20 5 20 22 8 16 8 -6 -20 -20 -20 -20 -20 -20 -20 -20 -20 -16 10 14 18 14 15 19 12 -11 16 16 1 -20 -5
17 19 24 -9 9 17 22 19 11 12 -20 4 -20 -20 32 29 11 4 7 10 25 14 -6 -20 -20 -20 -20 -20 -20 -20 -20 -20 -20 -20 -20 1 13 10 9 18 22 -14 18 21 22 -20 -16
11 22 21 17 15 -3 15 10 6 -18 11 -20 -19 -12 7 20 29 18 6 -8 12 12 2 -20 -20 -20 -20 -20 -20 -20 -20 -20 -18 -16 -5 15 3 13 8 -10 16 20 14 23 27 2 2
18 17 17 19 21 18 19 26 -20 -3 10 -10 -20 -20 -9 19 16 13 2 3 15 10 -2 -20 -20 -20 -20 -20 -20 -20 -20 -20 -20 -0 -12 17 24 26 15 5 10 20 6 19 12 25 -13
21 21 21 20 19 20 25 23 8 20 -14 -18 -0 -11 32 20 21 4 17 -2 15 2 -19 -20 -20 -20 -20 -20 -20 -20 -10 4 18 25 28 28 13 6 12 -2 -19 -6 -20 17 -20 -18 3
22 23 25 26 27 24 19 21 20 19 -13 -20 5 -13 29 20 -20 20 22 14 10 -18 -20 -20 -20 -20 -20 -20 -20 -20 -20 23 34 28 18 6 8 14 -11 -16 -20 11 -20 12 11 27 -1
23 20 23 28 19 25 21 22 24 21 -20 -17 8 -7 31 -20 -7 14 16 16 -10 -20 -20 -20 -20 -20 -20 -20 -20 -20 -20 11 31 20 5 -8 -11 -8 16 -17 -14 16 5 20 21 10 1
28 29 20 25 24 23 25 24 21 19 3 15 -20 -20 27 -20 -6 18 14 6 -18 -20 -20 -20 -20 -20 -20 -20 -20 -20 -15 -18 8 21 19 16 8 -15 -1 17 18 17 36 9 15 14 10
17 20 13 22 21 -20 25 30 -6 -18 18 -20 -20 25 24 3 6 27 5 -4 -20 -20 -20 -20 -20 -20 -20 -20 -20 -20 -20 -18 -20 27 -10 18 16 37 6 6 11 -10 1 7 4 3 -20
19 16 -7 -11 19 25 26 19 20 19 1 -18 6 25 0 18 26 16 -2 -20 -20 -20 -20 -20 -20 -20 -20 -20 -20 -20 -20 -20 -20 -20 -20 11 13 -11 15 -20 -2 -16 -20 -20 -20 -20 -5
10 6 -10 8 21 20 13 28 27 -10 -20 -19 26 11 18 20 25 2 -19 -20 -20 -20 -20 -20 -20 -20 -20 -20 -20 -20 -20 -20 -20 -20 -15 -6 23 2 1 -20 -20 -20 -20 -20 -20 -20 -20
14 8 15 14 18 0 23 16 28 11 -16 14 22 18 21 22 9 -20 -20 -20 -20 -20 -20 -20 -20 -20 -20 -20 -20 -20 -20 -20 -20 -20 -20 -20 -16 23 -19 -20 -20 -20 -20 -20 -20 -20 -20
38 38 33 28 27 26 8 0 22 15 25 21 12 16 26 3 -16 -20 -20 -20 -20 -20 -20 -20 -20 -20 -20 -20 -20 -20 -20 -20 -20 -20 -20 -20 -20 -18 -10 16 -20 -20 -20 -20 -20 -20 -20
22 27 29 22 19 -8 19 -4 -1 22 1 -13 25 21 22 -4 -20 -20 -20 -20 -20 -20 -20 -20 -20 -20 -20 -20 -20 -20 -20 -20 -20 -20 -20 -20 -20 -20 -20 -20 -20 -20 -20 -20 -20 -20 -20
-7 14 9 -19 -20 -6 -8 -0 -8 -20 2 -10 4 9 22 1 -20 -20 -20 -20 -20 -20 -20 -20 -20 -20 -20 -20 -20 -20 -20 -20 -20 -20 -20 -20 -20 -20 -20 -20 -20 -20 -20 -20 -20 -20 -20
19 16 2 -4 -2 -4 -6 -20 -20 -20 -20 -1 -2 5 -13 3 -4 -20 -20 -20 -20 -20 -20 -20 -20 -20 -20 -20 -20 -20 -20 -20 -20 -20 -20 -20 -20 -20 -20 -20 -20 -20 -20 -20 -20 -20 -20
24 29 11 10 -18 -20 -20 -20 -20 -20 -5 -8 -20 -20 -20 -20 -20 -20 -20 -20 -20 -20 -20 -20 -20 -20 -20 -20 -20 -20 -20 -20 -20 -20 -20 -20 -20 -20 -20 -20 -20 -20 -20 -20 -20 -20 -20
23 29 23 -19 -20 -20 -20 -20 -20 -20 -20 -20 -20 -20 -20 -20 -20 -20 -20 -20 -20 -20 -20 -20 -20 -20 -20 -20 -20 -20 -20 -20 -20 -20 -20 -20 -20 -20 -20 -20 -20 -20 -20 -20 -20 -20 -20
14 17 30 4 -20 -10 -19 -10 -15 -18 -20 -20 -20 -20 -20 -20 -20 -20 -20 -20 -20 -20 -20 -20 -20 -20 -20 -20 -20 -20 -20 -20 -20 -20 -20 -20 -20 -20 -20 -20 -20 -20 -20 -20 -20 -20 -20
9 13 18 29 11 10 -15 -20 -20 -20 -20 -20 -20 -20 -20 -20 -20 -20 -20 -20 -20 -20 -20 -20 -20 -20 -20 -20 -20 -20 -20 -20 -20 -20 -20 -20 -20 -20 -20 -20 -20 -20 -20 -20 -20 -20 -20
-20 7 11 14 24 15 9 -20 -20 -20 -20 -20 -20 -20 -20 -20 -20 -20 -20 -20 -20 -20 -20 -20 -20 -20 -20 -20 -20 -20 -20 -20 -20 -20 -20 -20 -20 -20 -20 -20 -20 -20 -20 -20 -20 -20 -20
-20 -20 7 10 14 13 12 1 -12 -20 -20 -20 -20 -20 -20 -20 -20 -20 -20 -20 -20 -20 -20 -20 -20 -20 -20 -20 -20 -20 -20 -20 -20 -20 -20 -20 -20 -20 -20 -20 -20 -20 -20 -20 -20 -20 -20
-20 -20 -18 9 13 19 15 9 -20 -20 -20 -20 -20 -20 -20 -20 -20 -20 -20 -20 -20 -20 -20 -20 -20 -20 -20 -20 -20 -20 -20 -20 -20 -20 -20 -20 -20 -20 -20 -20 -20 -20 -20 -20 -20 -20 -20
-20 -20 -20 -20 12 14 22 12 -20 -20 -20 -20 -20 -20 -20 -20 -20 -20 -20 -20 -20 -20 -20 -20 -20 -20 -20 -20 -20 -20 -20 -20 -20 -20 -20 -20 -20 -20 -20 -20 -20 -20 -20 -20 -20 -20 -20

GFSGBSN_prec_radar_105.txt.gz
Reflectivity
11 -20 10 -12 -12 -20 -17 -20 -20 -20 -11 -20 -20 4 6 9 -8 28 14 8 10 -15 -6 -20 -20 -20 -20 -20 -20 -20 -20 -20 -20 -20 -20 -20 -20 -20 -20 -20 -20 -20 -20 -20 -20 -20 -20
-15 14 9 8 1 -12 -20 8 11 -20 -20 7 -20 -16 -19 3 2 28 8 -19 3 18 12 -19 -20 -20 -7 -8 -20 -20 -20 -20 -20 -20 -20 -20 -20 -20 -20 -20 -20 -20 -20 -20 -20 -20 -20
10 17 18 17 18 21 18 0 -19 -2 -11 -20 -20 -20 -20 -4 9 11 18 -1 -1 28 -17 -20 -20 -8 -19 -20 -20 -20 -20 -20 -20 -20 -20 -20 -20 -20 -20 -20 -20 -20 -20 -20 -20 -20 -20
6 17 12 -3 17 -14 -5 22 23 -20 -20 -20 -20 -20 -20 -20 32 19 16 19 18 22 -20 -20 -0 -7 -15 -20 -20 -20 -20 -20 -20 -20 -20 -20 -20 -20 3 1 1 9 8 9 -20 -20 -20
17 17 13 21 22 12 -8 -20 -20 6 -6 -20 -20 -20 -20 -20 12 17 24 -3 -20 -16 -20 -14 8 -4 -20 -20 -20 -20 -20 -20 -20 -20 -20 -20 -2 9 10 11 11 -3 4 15 -20 -20 -20
16 22 23 26 26 18 21 -8 11 22 23 -19 -20 -20 -20 -20 18 3 10 29 9 -4 -5 -5 0 -20 -20 -20 -20 -20 -20 -20 -20 -20 9 3 13 9 3 6 4 17 16 -20 -17 -20 -4
24 24 25 24 23 22 24 22 23 23 20 -20 -20 -20 5 31 9 3 19 12 -15 -13 0 -2 -15 -20 -20 -20 -20 -20 -20 -20 -20 2 3 6 7 6 -19 10 13 10 16 13 21 -20 23
22 23 26 28 31 29 23 25 23 24 12 -20 -20 -20 -10 30 27 24 31 -19 -11 -8 14 -3 -20 -20 -20 -20 -20 -20 -20 -8 -7 -8 10 18 -10 -20 13 14 18 27 -20 -20 -7 16 -10
28 25 24 26 18 30 27 29 9 25 -20 -20 -20 -20 -20 9 24 38 9 3 -20 -12 -2 -3 -20 -20 -20 -20 -20 -11 -20 -19 3 20 32 15 1 -10 16 -1 -20 -20 -19 16 39 -0 3
28 13 15 19 25 21 24 27 28 22 -20 -20 -20 -20 -20 14 6 -15 11 25 -19 7 -4 -20 -20 -20 -20 -20 -17 -20 -20 -13 9 8 21 18 -11 7 9 -5 -20 -20 13 38 26 17 5
21 15 14 20 19 25 21 23 22 -20 -20 -20 -20 -10 34 12 23 11 23 3 -0 3 -13 -20 -20 -20 -20 -8 -7 -19 -20 11 23 7 10 10 -12 6 12 -0 -20 -17 -1 7 25 25 29
6 20 7 15 21 19 10 22 21 -20 -20 -20 -20 -7 38 -11 24 25 11 7 -5 -18 -20 -20 -20 -20 -20 -20 -20 -20 -18 -1 -10 -19 -5 -2 -19 7 -17 -1 -14 -20 9 13 34 30 -1
-1 2 -4 -7 -10 18 20 19 -3 6 -20 -20 -20 -20 21 -16 17 26 -4 -18 -8 -20 -20 -20 -20 -20 -20 -20 -20 -20 -5 18 1 8 7 7 11 -2 -2 18 29 19 27 25 21 18 2
24 16 -20 -20 20 20 6 17 -9 -20 -20 -20 -20 -20 -15 -16 28 25 -17 2 -20 -20 -20 -20 -20 -20 -20 -20 -20 -20 3 21 17 -18 9 -2 12 -18 6 29 38 36 13 8 20 11 -1
39 30 15 13 14 19 7 9 15 -20 -20 -20 -11 -4 -1 10 27 27 4 1 -20 -20 -20 -20 -20 -20 -20 -20 -20 -20 -20 -7 -12 -2 16 22 -3 -20 -16 -5 2 12 3 11 16 1 -10
33 32 32 13 -14 15 13 -18 -20 -20 -20 -20 -1 18 21 25 27 18 -2 -20 -20 -20 -20 -20 -20 -20 -20 -20 -20 -20 -7 -20 -20 -20 16 -20 -13 -20 -20 -12 -0 -8 -18 -16 -20 -14 -1
14 24 20 20 -20 -20 -20 -20 -20 -20 -20 3 -0 4 24 19 22 -3 -9 -14 -20 -20 -20 -20 -20 -20 -20 -20 -20 -20 -20 -20 -20 -20 -18 14 -5 -20 -20 -20 -18 -20 -20 -20 -20 -20 -20
14 11 -20 -9 -20 -20 -8 -20 7 -20 -20 10 -14 7 14 17 10 -19 -20 -20 -20 -20 -20 -20 -20 -20 -20 -20 -20 -20 -20 -20 -20 -20 -20 -20 4 -2 -20 -20 -20 -20 -20 -20 -20 -20 -20
11 0 -20 -16 -20 -20 -20 -20 -20 -20 -20 -20 -4 17 15 -1 1 -20 -20 -20 -20 -20 -20 -20 -20 -20 -20 -20 -20 -20 -20 -20 -20 -20 -20 -9 -20 -15 -20 -20 -20 -20 -20 -20 -20 -20 -20
17 8 4 -12 -20 -20 -20 1 -10 -20 -2 -11 -18 1 -1 -11 -20 -20 -20 -20 -20 -20 -20 -20 -20 -20 -20 -20 -20 -20 -20 -20 -20 -20 -20 -20 -20 -20 -20 -20 -20 -20 -20 -20 -20 -20 -20
15 -19 -20 -15 -20 -20 -20 -20 -17 -2 -20 -20 -20 -12 -15 -6 -20 -20 -20 -20 -20 -20 -20 -20 -20 -20 -20 -20 -20 -20 -20 -20 -20 -20 -20 -20 -20 -20 -20 -20 -20 -20 -20 -20 -20 -20 -20
-10 9 -20 -20 -18 -20 -20 -20 -20 -20 -20 -20 -20 -20 -20 -20 -20 -20 -20 -20 -20 -20 -20 -20 -20 -20 -20 -20 -20 -20 -20 -20 -20 -20 -20 -20 -20 -20 -20 -20 -20 -20 -20 -20 -20 -20 -20
9 8 13 7 -11 -16 -20 -20 -20 -20 -20 -20 -20 -20 -20 -20 -20 -20 -20 -20 -20 -20 -20 -20 -20 -20 -20 -20 -20 -20 -20 -20 -20 -20 -20 -20 -20 -20 -20 -20 -20 -20 -20 -20 -20 -20 -20
-12 5 5 12 11 12 14 12 10 -20 -20 -20 -20 -20 -20 -20 -20 -20 -20 -20 -20 -20 -20 -20 -20 -20 -20 -20 -20 -20 -20 -20 -20 -20 -20 -20 -20 -20 -20 -20 -20 -20 -20 -20 -20 -20 -20
-20 -16 15 14 10 11 11 8 -20 -20 -20 -20 -20 -20 -20 -20 -20 -20 -20 -20 -20 -20 -20 -20 -20 -20 -20 -20 -20 -20 -20 -20 -20 -20 -20 -20 -20 -20 -20 -20 -20 -20 -20 -20 -20 -20 -20
-20 -20 -20 2 18 13 2 9 -14 -20 -20 -20 -20 -20 -20 -20 -20 -20 -20 -20 -20 -20 -20 -20 -20 -20 -20 -20 -20 -20 -20 -20 -20 -20 -20 -20 -20 -20 -20 -20 -20 -20 -20 -20 -20 -20 -20
-20 -20 -20 -20 -5 16 10 4 0 -20 -20 -20 -20 -20 -20 -20 -20 -20 -20 -20 -20 -20 -20 -20 -20 -20 -20 -20 -20 -20 -20 -20 -20 -20 -20 -20 -20 -20 -20 -20 -20 -20 -20 -20 -20 -20 -20
-20 -20 -19 -20 -20 -17 11 8 0 -20 -20 -20 -20 -20 -20 -20 -20 -20 -20 -20 -20 -20 -20 -20 -20 -20 -20 -20 -20 -20 -20 -20 -20 -20 -20 -20 -20 -20 -20 -20 -20 -20 -20 -20 -20 -20 -20
-20 3 -20 -20 -20 -20 -17 7 8 -20 -20 -20 -20 -20 -20 -20 -20 -20 -20 -20 -20 -20 -20 -20 -20 -20 -20 -20 -20 -20 -20 -20 -20 -20 -20 -20 -20 -20 -20 -20 -20 -20 -20 -20 -20 -20 -20

GFSGBSN_prec_radar_111.txt.gz
Reflectivity
7 -2 -20 17 21 22 22 28 31 31 31 25 19 4 8 9 8 7 11 25 11 -19 9 5 -20 -20 -20 -20 -20 -20 -20 -20 -20 -20 -20 -20 -20 -20 -20 -20 -20 -20 -20 -20 -20 -20 -20
-7 -20 -20 4 -6 20 21 30 23 29 28 27 -2 3 -0 11 7 9 9 22 28 4 9 -20 -20 -20 -20 -20 -20 -20 -20 -20 -20 -20 -20 -20 -20 -20 -20 -20 -20 -20 -20 -20 -20 -20 -20
-20 16 10 9 5 22 24 24 25 32 24 28 18 5 -20 3 15 7 7 20 28 -18 2 -20 -20 -20 -20 -20 -20 -20 -20 -20 -20 -20 -20 -20 -20 -20 -20 -20 -20 -20 -20 -20 -20 -20 -20
6 13 24 21 11 -13 20 2 33 32 29 24 19 -1 -20 -9 7 20 0 22 -1 -10 -8 6 -17 -20 -20 -20 -20 -20 -20 -20 -20 -20 -20 -20 -20 -20 -20 -20 -20 -20 -20 -20 -20 -20 -20
12 20 18 -10 5 14 3 24 30 29 23 21 11 -20 -20 -20 18 21 29 2 25 8 -6 -20 -20 -20 -20 -20 -20 -20 -20 -20 -20 -20 -20 -20 -20 -20 -20 -20 -20 -20 -20 -20 -20 -20 -20
21 23 21 6 14 17 -18 3 24 16 5 20 -0 -20 -20 -20 9 24 25 28 8 -2 -20 -15 -20 -20 -20 -20 -20 -20 -20 -20 -20 -20 -20 -20 -20 -20 -20 -13 -20 -20 -7 -18 -20 -20 -20
20 24 10 -20 11 21 13 -20 -20 -20 -20 11 -20 -20 0 12 0 -10 24 16 16 -6 -16 -20 -20 -20 -20 -20 -20 -20 -20 -20 -20 -20 -20 -16 -12 -20 -20 -20 -20 -20 -20 -20 -20 -20 -20
15 21 11 6 6 11 -6 -20 -20 -20 -20 12 -20 -20 -2 21 0 -20 12 -2 -3 -20 -20 -20 -20 -20 -20 -20 -20 -20 -20 -20 -20 -20 -20 -20 -12 -20 -20 -20 -12 -5 13 -10 -20 -20 -14
-2 -5 15 4 -12 -8 -20 -20 -20 -12 -20 -20 -20 -20 23 32 -17 -6 2 34 -20 -20 -20 -20 -20 -20 -20 -20 -20 -20 -20 -20 -20 -1 -12 -19 -20 -20 5 -8 9 -15 -19 -20 -20 -20 -20
35 -9 -2 -17 -20 -20 -20 -20 -20 13 -16 -20 -17 -20 20 16 32 -6 13 -13 -20 -20 -20 -20 -20 -20 -20 -20 -20 -20 -20 -20 -1 -18 5 -8 -20 -19 6 -14 10 -17 -20 -20 -11 -15 -20
31 -19 -20 -20 -20 -20 -20 -18 9 -20 -20 -20 -8 14 13 -20 -20 17 9 -20 -20 -20 -20 -20 -20 -20 -20 -20 -18 -14 -18 -19 -3 2 -20 -20 -20 0 -20 -20 -19 -20 -20 -20 21 21 2
24 -20 -20 -20 -20 -20 -20 -20 -20 -20 -20 -20 -5 13 -15 -20 -18 -16 -13 -20 -20 -20 -20 -20 -20 -20 -20 -20 -20 -20 1 -8 -17 -14 -7 -13 -19 -20 -20 -20 -17 4 2 -15 26 16 14
-12 -20 -20 -20 -4 -20 -20 -20 -20 -20 -20 -20 -10 -18 -18 -20 -20 -20 -20 -20 -20 -20 -20 -20 -20 -20 -20 -20 -20 -20 -8 -17 2 -20 -20 -17 -20 -20 -20 2 10 32 29 19 16 24 24
-20 -20 -20 -20 -20 -20 -5 -15 -20 -20 -20 -20 -20 -20 -20 -11 -20 -20 -20 -20 -20 -20 -20 -20 -20 -20 -20 -20 -20 -20 4 -16 -20 -20 -20 -20 -20 -20 8 23 27 33 28 23 22 5 17
-20 -20 -20 -20 -20 -17 12 -17 -20 -20 -11 -20 -20 -20 -20 -20 -20 -20 -20 -20 -20 -20 -20 -20 -20 -20 -20 -20 -20 -20 -20 -20 -20 -20 -20 -20 -20 -20 -1 18 21 13 21 20 20 12 -5
7 -20 -20 -20 12 -10 -4 -20 -20 -20 -5 -12 -20 -19 -13 -20 -20 -20 -20 -20 -20 -20 -20 -20 -20 -20 -20 -20 -20 -20 -20 -20 -20 -20 -20 -20 -20 -8 10 2 8 14 16 -4 -7 -6 16
-20 -20 9 10 -14 5 -20 -20 -20 -20 -20 -20 -20 -20 -20 -20 -20 -20 -20 -20 -20 -20 -20 -20 -20 -20 -20 -20 -20 -20 -20 -20 -20 -20 -20 -20 -20 -20 -20 -20 -20 -20 -17 -18 -11 9 15
-20 -20 -20 -18 -9 -20 -20 -20 -20 -20 -20 -20 -20 -20 -20 -20 -20 -20 -20 -20 -20 -20 -20 -20 -20 -20 -20 -20 -20 -20 -20 -20 -20 -20 -20 -20 -20 -20 -20 -20 -20 -20 -20 -20 -20 -13 -3
0 -20 -20 -20 -20 -20 -20 -20 -20 -20 -20 -20 -20 -14 -20 -20 -20 -20 -20 -20 -20 -20 -20 -20 -20 -20 -20 -20 -20 -20 -20 -20 -20 -20 -20 -20 -20 -20 -20 -20 -20 -20 -20 -20 -20 -20 -20
-20 -19 -20 -20 -20 -20 -20 -20 -20 -20 -20 -20 -20 -20 -20 -20 -20 -20 -20 -20 -20 -20 -20 -20 -20 -20 -20 -20 -20 -20 -20 -20 -20 -20 -20 -20 -20 -20 -20 -20 -20 -20 -20 -20 -20 -20 -20
2 -20 -20 -20 -20 -20 -20 -20 -20 -20 2 -17 -20 -20 -20 -20 -20 -20 -20 -20 -20 -20 -20 -20 -20 -20 -20 -20 -20 -20 -20 -20 -20 -20 -20 -20 -20 -20 -20 -20 -20 -20 -20 -20 -20 -20 -20
-8 -20 -20 -20 -20 -20 -20 -20 -20 -20 -1 -20 -20 -20 -20 -20 -20 -20 -20 -20 -20 -20 -20 -20 -20 -20 -20 -20 -20 -20 -20 -20 -20 -20 -20 -20 -20 -20 -20 -20 -20 -20 -20 -20 -20 -20 -20
-20 -16 -20 -20 -20 -20 -20 -20 -20 -20 -17 -20 -19 -20 -20 -20 -20 -20 -20 -20 -20 -20 -20 -20 -20 -20 -20 -20 -20 -20 -20 -20 -20 -20 -20 -20 -20 -20 -20 -20 -20 -20 -20 -20 -20 -20 -20
-20 -20 -17 -20 -20 -20 -20 -20 -20 -15 -20 -20 -20 -20 -20 -20 -20 -20 -20 -20 -20 -20 -20 -20 -20 -20 -20 -20 -20 -20 -20 -20 -20 -20 -20 -20 -20 -20 -20 -20 -20 -20 -20 -20 -20 -20 -20
-20 -20 -20 -20 -20 -20 -20 -20 -20 -20 -20 -20 -20 -20 -20 -20 -20 -20 -20 -20 -20 -20 -20 -20 -20 -20 -20 -20 -20 -20 -20 -20 -20 -20 -20 -20 -20 -20 -20 -20 -20 -20 -20 -20 -20 -20 -20
-20 -20 -20 -20 -20 -20 -20 -20 -20 -20 -20 -20 -20 -20 -20 -20 -20 -20 -20 -20 -20 -20 -20 -20 -20 -20 -20 -20 -20 -20 -20 -20 -20 -20 -20 -20 -20 -20 -20 -20 -20 -20 -20 -20 -20 -20 -20
-20 -20 -20 -20 -20 -20 -20 -20 -20 -20 -20 -20 -20 -20 -20 -20 -20 -20 -20 -20 -20 -20 -20 -20 -20 -20 -20 -20 -20 -20 -20 -20 -20 -20 -20 -20 -20 -20 -20 -20 -20 -20 -20 -20 -20 -20 -20
-20 -20 -4 -20 -20 -20 -20 -20 -20 -20 -20 -20 -20 -20 -20 -20 -20 -20 -20 -20 -20 -20 -20 -20 -20 -20 -20 -20 -20 -20 -20 -20 -20 -20 -20 -20 -20 -20 -20 -20 -20 -20 -20 -20 -20 -20 -20
-20 -20 -0 -11 -18 -20 -15 -20 -20 -20 -20 -20 -20 -20 -20 -20 -20 -20 -20 -20 -20 -20 -20 -20 -20 -20 -20 -20 -20 -20 -20 -20 -20 -20 -20 -20 -20 -20 -20 -20 -20 -20 -20 -20 -20 -20 -20

GFSGBSN_prec_radar_114.txt.gz
Reflectivity
18 -4 8 23 19 -11 -3 23 -15 22 36 28 21 9 6 6 12 -2 -19 6 15 16 -20 8 -5 -20 -20 -20 -20 -20 -9 -20 -20 -20 -20 -20 -20 -20 -20 -20 -20 -20 -20 -20 -20 -20 -20
-20 14 -20 2 -5 7 5 -16 -7 22 25 30 27 17 -7 -11 9 -2 -18 8 26 3 -14 -7 -20 -20 -20 -20 -20 -20 -20 -20 -20 -20 -20 -20 -20 -20 -20 -20 -20 -20 -20 -20 -20 -20 -20
21 18 26 25 8 1 13 -7 -20 -15 -20 25 13 -19 5 -20 -5 -0 -4 27 25 6 -16 7 -14 -20 -20 -20 -20 -20 -20 -20 -20 -20 -20 -20 -20 -20 -20 -20 -20 -20 -20 -20 -20 -20 -20
15 13 17 21 1 -7 -15 -19 -14 -20 -3 29 18 -20 -20 -4 1 4 -5 10 22 37 16 6 -20 -20 -20 -20 -20 -20 -20 -20 -20 -20 -20 -20 -20 -20 -20 -20 -20 -20 -20 -20 -20 -20 -20
18 14 19 13 0 24 -10 -20 19 30 30 30 18 -20 -20 -16 16 16 20 16 4 6 -8 -20 -20 -20 -20 -20 -20 -20 -20 -20 -20 -20 -20 -20 -20 -20 -20 -20 -20 -20 -20 -20 -20 -20 -20
-11 8 6 -20 25 13 -20 -20 24 23 24 13 -20 -20 -20 3 21 15 -16 8 -18 -13 -14 -20 -20 -20 -20 -20 -20 -20 -20 -20 -20 -20 -20 -20 -20 -20 -20 -20 -20 -20 -20 -20 -20 -20 -20
13 -18 6 -20 23 12 -20 -20 -20 -20 9 -20 -20 -10 -2 11 22 29 -1 10 -20 -20 -20 -20 -20 -20 -20 -20 -20 -20 -20 -20 -20 -20 -20 -20 -20 -20 -20 -20 -20 -20 -20 -20 -20 -20 -20
24 -20 3 -20 -3 -6 -19 -20 -13 -10 10 -20 -20 6 14 5 25 38 9 1 -20 -20 -20 -20 -20 -20 -20 -20 -20 -20 -20 -20 -20 -20 -20 -20 -20 -20 -20 -20 -20 -20 7 -17 -20 -20 -20
-17 -20 -12 6 -20 -19 -17 -20 15 -11 -20 -20 -20 20 13 -3 5 5 -10 -20 -20 -20 -20 -20 -20 -20 -20 -20 -20 -20 -20 -20 -20 -12 -7 2 -20 -20 -13 -16 -10 -20 -20 -20 -20 -20 -20
-20 -20 -8 7 -20 -20 -15 11 -11 -20 -20 -20 -20 31 -9 -19 -20 -20 2 -20 -20 -20 -20 -20 -20 -20 -20 -20 -20 -20 -20 -20 -11 -1 7 -17 -20 -20 -20 -20 -18 -20 -20 -20 -20 11 -20
-20 -20 -9 7 1 -20 -20 -20 -20 -20 -20 -20 -20 -20 -20 -2 -20 -7 -19 -20 -20 -20 -20 -20 -20 -20 -20 -20 -20 -20 -20 -20 -4 -12 -8 -16 -20 4 -11 -20 -20 -20 -20 -20 -20 23 5
-20 -20 4 5 -3 -16 -10 -20 -20 -18 10 -20 -20 -20 -20 -20 -20 -20 -20 -20 -20 -20 -20 -20 -20 -20 -20 -20 -20 -13 -12 -5 -20 1 9 -19 -20 -20 -20 -20 -15 -10 2 -13 -2 -19 -3
-20 4 3 -1 8 -20 -20 -20 -20 -20 -20 -20 -20 -20 -20 -20 -20 -20 -20 -20 -20 -20 -20 -20 -20 -20 -20 -20 -20 -8 -14 -15 -17 -20 -20 -20 -20 -20 -3 14 12 30 22 3 12 -1 -12
-1 2 6 -19 12 -11 -20 -4 -20 -20 7 -20 -20 -20 -20 -19 -20 -20 -20 -20 -20 -20 -20 -20 -20 -20 -20 -20 -20 -20 -17 -17 -20 -20 -20 -20 -20 -20 -20 6 25 23 33 19 2 2 12
-20 -4 -5 7 11 -9 -20 6 8 -8 -20 -20 -20 -20 -20 -20 -20 -20 -20 -20 -20 -20 -20 -20 -20 -20 -20 -20 -20 -6 -20 -20 -20 -20 -20 -20 -20 -20 -20 -9 -3 19 30 19 8 2 -16
-20 -19 -20 -20 1 -20 -20 -20 4 -4 -20 -20 -20 -20 -20 -20 -20 -20 -20 -20 -20 -20 -20 -20 -20 -20 -20 -20 -20 -20 -20 -20 -20 -20 -20 -20 -18 -20 -20 -20 -17 15 -2 3 2 -17 -18
-20 -20 -20 -20 -20 -20 -20 -20 -20 -20 -20 -20 -20 -20 -20 -20 -20 -20 -20 -20 -20 -20 -20 -20 -20 -20 -20 -20 -20 -20 -20 -20 -20 -20 -20 -20 -20 -20 -20 -20 -20 -20 -20 -15 7 -18 -20
-20 -20 -20 -20 -20 -20 -20 -20 -20 -20 -20 -20 -20 -20 -20 -20 -20 -20 -20 -20 -20 -20 -20 -20 -20 -20 -20 -20 -20 -20 -20 -20 -20 -20 -20 -20 -20 -20 -20 -20 -20 -20 -20 -20 -20 -5 -11
-20 -20 -20 -20 -20 -20 -20 -20 -20 -20 -1 -20 -20 -20 -20 -20 -20 -20 -20 -20 -20 -20 -20 -20 -20 -20 -20 -20 -20 -20 -20 -20 -20 -20 -20 -20 -20 -20 -20 -20 -20 -20 -20 -20 -20 -18 2
-19 5 -20 -20 -20 -20 -20 -20 -20 -20 -20 -20 -20 -20 -20 -20 -20 -20 -20 -20 -20 -20 -20 -20 -20 -20 -20 -20 -20 -20 -20 -20 -20 -20 -20 -20 -20 -20 -20 -20 -20 -20 -20 -20 -20 -20 -20
-17 -20 -20 -20 -20 -20 -20 -20 -20 -20 -20 -20 -20 -20 -20 -20 -20 -20 -20 -20 -20 -20 -20 -20 -20 -20 -20 -20 -20 -20 -20 -20 -20 -20 -20 -20 -20 -20 -20 -20 -20 -20 -20 -20 -20 -20 -20
-20 -20 -20 -20 -20 -20 -20 -20 -20 -20 -20 -20 -20 -20 -20 -20 -20 -20 -20 -20 -20 -20 -20 -20 -20 -20 -20 -20 -20 -20 -20 -20 -20 -20 -20 -20 -20 -20 -20 -20 -20 -20 -20 -20 -20 -20 -20
-20 -20 -20 -20 -20 -20 -20 -20 -20 -20 -20 -20 -20 -20 -20 -20 -20 -20 -20 -20 -20 -20 -20 -20 -20 -20 -20 -20 -20 -20 -20 -20 -20 -20 -20 -20 -20 -20 -20 -20 -20 -20 -20 -20 -20 -20 -20
-20 -20 -20 -20 -20 -20 -20 -20 -20 -20 -20 -20 -20 -20 -20 -20 -20 -20 -20 -20 -20 -20 -20 -20 -20 -20 -20 -20 -20 -20 -20 -20 -20 -20 -20 -20 -20 -20 -20 -20 -20 -20 -20 -20 -20 -20 -20
-20 -20 -20 -20 -20 -20 -20 -20 -20 -20 -20 -20 -20 -20 -20 -20 -20 -20 -20 -20 -20 -20 -20 -20 -20 -20 -20 -20 -20 -20 -20 -20 -20 -20 -20 -20 -20 -20 -20 -20 -20 -20 -20 -20 -20 -20 -20
-20 -20 -20 -20 -20 -20 -20 -20 -20 -20 -20 -20 -20 -20 -20 -20 -20 -20 -20 -20 -20 -20 -20 -20 -20 -20 -20 -20 -20 -20 -20 -20 -20 -20 -20 -20 -20 -20 -20 -20 -20 -20 -20 -20 -20 -20 -20
-20 -20 -20 -20 -20 -20 -20 -20 -20 -20 -20 -20 -20 -20 -20 -20 -20 -20 -20 -20 -20 -20 -20 -20 -20 -20 -20 -20 -20 -20 -20 -20 -20 -20 -20 -20 -20 -20 -20 -20 -20 -20 -20 -20 -20 -20 -20
-20 -20 -20 -20 -2 12 -18 -20 -20 -20 -20 -20 -20 -20 -20 -20 -20 -20 -20 -20 -20 -20 -20 -20 -20 -20 -20 -20 -20 -20 -20 -20 -20 -20 -20 -20 -20 -20 -20 -20 -20 -20 -20 -20 -20 -20 -20
-20 -20 -20 -20 -20 6 13 0 -20 -20 3 -20 -20 -20 -20 -20 -20 -20 -20 -20 -20 -20 -20 -20 -20 -20 -20 -20 -20 -20 -20 -20 -20 -20 -20 -20 -20 -20 -20 -20 -20 -20 -20 -20 -20 -20 -20

GFSGBSN_prec_radar_117.txt.gz
Reflectivity
-12 21 26 31 31 29 22 1 21 -20 -6 -8 26 23 22 -4 16 6 1 12 7 21 -20 -20 -20 -20 -20 -20 -20 -20 -20 -20 -20 -20 -20 -20 -20 -20 -20 -20 -20 -20 -20 -20 -20 -20 -20
11 20 22 27 25 1 20 9 9 -18 -11 29 38 12 19 7 -2 13 -2 10 14 35 -1 -20 -6 -20 -20 -20 -20 -20 -20 -20 -20 -20 -20 -20 -20 -20 -20 -20 -20 -20 -20 -20 -20 -20 -20
12 5 18 16 14 -9 2 21 -20 -20 15 12 24 -7 -2 -20 -20 -11 8 21 30 -14 -6 -4 -20 -20 -20 -20 -20 -20 -20 -20 -20 -20 -20 -20 -20 -20 -20 -20 -20 -20 -20 -20 -20 -20 -20
21 2 22 6 21 28 -20 20 21 -18 8 12 0 -20 -14 -20 -3 -15 18 17 21 -17 0 -16 -20 -20 -20 -20 -20 -20 -20 -20 -20 -20 -20 -20 -20 -20 -20 -20 -20 -20 -20 -20 -20 -20 -20
21 -20 1 5 22 -11 19 19 22 9 19 21 -20 -20 -20 -20 -17 19 21 25 15 -2 25 -20 -20 -20 -20 -20 -20 -20 -20 -20 -20 -20 -20 -20 -20 -20 -20 -20 -20 -20 -20 -20 -20 -20 -20
-5 -19 -20 -0 22 -12 -20 -6 22 17 10 -5 -20 -20 -20 13 -7 32 11 24 18 19 -13 -20 -20 -20 -20 -20 -20 -20 -20 -20 -20 -20 -20 -20 -20 -20 -20 -20 -20 -20 -20 -20 -20 -20 -20
-20 -20 -20 9 13 -20 -20 -20 -20 -10 -14 -20 -20 -20 -20 8 33 19 16 -20 -11 -15 -20 -20 -20 -20 -20 -20 -20 -20 -20 -20 -20 -20 -20 -20 -20 -20 -20 -20 -20 -20 -20 -20 -20 -20 -20
-20 -20 5 7 -4 -1 -20 -20 -20 -20 -20 -9 32 -8 4 37 26 4 -0 -14 -7 -13 -20 -20 -20 -20 -20 -20 -20 -20 -20 -20 -20 -20 -20 -20 -20 -20 -20 -20 -20 -20 -20 -20 -20 -20 -20
-20 -20 -3 8 -3 11 -7 -20 -20 -20 -20 17 27 6 -3 33 21 20 -13 -20 -20 -20 -20 -20 -20 -20 -20 -20 -20 -20 -20 -20 -20 -6 4 -7 -20 -20 -20 -20 -7 -19 -20 -20 -20 -20 -20
-20 -20 -20 8 -20 -20 -19 -20 -20 -20 -20 -20 1 8 4 -16 11 -20 -20 -20 -20 -20 -20 -20 -20 -20 -20 -20 -20 -20 -20 -20 -20 -20 -20 -20 -20 -20 -20 -20 -20 -20 -20 -20 -20 2 -20
2 10 -2 -13 -1 3 -13 -20 16 -17 -20 -20 -20 -20 -20 -20 -20 -20 -20 -20 -20 -20 -20 -20 -20 -20 -20 -20 -20 -20 -20 -20 -20 -10 -20 -20 -20 -20 -20 -20 -20 -20 -20 -20 -10 -0 5
-20 12 7 4 -12 -20 -6 12 19 11 7 -8 -20 -20 -20 -20 -20 -20 -20 -20 -20 -20 -20 -20 -20 -20 -20 -20 -20 -20 -20 -20 -20 -9 -20 -20 -20 -8 -20 -20 -19 -20 -15 -14 -0 2 -9
-20 -20 6 3 1 -8 -20 -20 -17 16 2 -18 -20 -20 -20 -20 -20 -20 -20 -20 -20 -20 -20 -20 -20 -20 -20 -20 -20 -20 -20 -20 -18 -20 -20 -20 -20 -20 -20 -20 -20 -4 10 -20 -20 -20 -20
-20 -20 -20 -6 -20 -20 -20 -20 -6 -18 -3 -20 -20 -20 -20 -20 -20 -20 -20 -20 -20 -20 -20 -20 -20 -20 -20 -20 -20 -20 -20 -20 -20 -12 -17 -20 -20 -20 -20 -20 -20 12 17 -1 -20 -1 -20
-20 -20 -20 -20 -20 -20 -20 -20 -20 -20 -20 -20 -20 -20 -20 -20 -20 -20 -20 -20 -20 -20 -20 -20 -20 -20 -20 -20 -20 1 -20 -20 -20 -20 -20 -20 -20 -20 -20 -20 -14 4 23 20 -0 -4 -20
-20 -20 -20 -20 -20 -20 -20 -20 -20 -20 -20 -20 -20 -20 -20 -20 -20 -20 -20 -20 -20 -20 -20 -20 -20 -20 -20 -20 -20 -20 -20 -20 -20 -20 -20 -20 -20 -20 -20 -20 -20 -19 -7 7 -14 -17 -14
-20 -20 -20 -20 -20 -20 -20 -20 -20 -20 -20 -20 -20 -20 -20 -20 -20 -20 -20 -20 -20 -20 -20 -20 -20 -20 -20 -20 -20 -20 -20 -20 -20 -20 -20 -20 -20 -20 -20 -20 -20 -20 -20 -20 -20 -6 -20
-20 -20 -20 -20 -20 -20 -20 -20 -20 -20 -20 -20 -20 -20 -20 -20 -20 -20 -20 -20 -20 -20 -20 -20 -20 -20 -20 -20 -20 -20 -20 -20 -20 -20 -20 -20 -20 -20 -20 -20 -20 -20 -20 -20 -20 -20 -20
9 -20 -20 -20 -20 -20 -20 -20 -20 -20 -20 -20 -20 -20 -20 -20 -20 -20 -20 -20 -20 -20 -20 -20 -20 -20 -20 -20 -20 -20 -20 -20 -20 -20 -20 -20 -20 -20 -20 -20 -20 -20 -20 -20 -20 -20 -20
-20 -1 -20 -20 -20 -20 -20 -20 -20 -20 -20 -20 -20 -20 -20 -20 -20 -20 -20 -20 -20 -20 -20 -20 -20 -20 -20 -20 -20 -20 -20 -20 -20 -20 -20 -20 -20 -20 -20 -20 -20 -20 -20 -20 -20 -20 -20
-20 -20 -14 -20 -20 -20 -20 -20 -20 -20 -20 -20 -20 -20 -20 -20 -20 -20 -20 -20 -20 -20 -20 -20 -20 -20 -20 -20 -20 -20 -20 -20 -20 -20 -20 -20 -20 -20 -20 -20 -20 -20 -20 -20 -20 -20 -20
-20 -20 -20 -20 -20 -20 -20 -20 -20 -20 -20 -20 -20 -20 -20 -20 -20 -20 -20 -20 -20 -20 -20 -20 -20 -20 -20 -20 -20 -20 -20 -20 -20 -20 -20 -20 -20 -20 -20 -20 -20 -20 -20 -20 -20 -20 -20
-20 -20 -20 -20 -20 -20 -20 -20 -20 -20 -20 -20 -20 -20 -20 -20 -20 -20 -20 -20 -20 -20 -20 -20 -20 -20 -20 -20 -20 -20 -20 -20 -20 -20 -20 -20 -20 -20 -20 -20 -20 -20 -20 -20 -20 -20 -20
-20 -20 -20 -20 -20 -20 -20 -20 -20 -20 -20 -20 -20 -20 -20 -20 -20 -20 -20 -20 -20 -20 -20 -20 -20 -20 -20 -20 -20 -20 -20 -20 -20 -20 -20 -20 -20 -20 -20 -20 -20 -20 -20 -20 -20 -20 -20
-20 -20 -20 -20 -20 -20 -20 -20 -20 -20 -20 -20 -20 -20 -20 -20 -20 -20 -20 -20 -20 -20 -20 -20 -20 -20 -20 -20 -20 -20 -20 -20 -20 -20 -20 -20 -20 -20 -20 -20 -20 -20 -20 -20 -20 -20 -20
-20 -20 -20 -20 -20 -20 -20 -20 -20 -20 -20 -20 -20 -20 -20 -20 -20 -20 -20 -20 -20 -20 -20 -20 -20 -20 -20 -20 -20 -20 -20 -20 -20 -20 -20 -20 -20 -20 -20 -20 -20 -20 -20 -20 -20 -20 -20
-20 -20 -20 -20 -20 -20 -20 -20 -20 -20 -20 -20 -20 -20 -20 -20 -20 -20 -20 -20 -20 -20 -20 -20 -20 -20 -20 -20 -20 -20 -20 -20 -20 -20 -20 -20 -20 -20 -20 -20 -20 -20 -20 -20 -20 -20 -20
-20 -20 -20 -20 -20 -20 -20 -20 -20 -20 -20 -20 -20 -20 -20 -20 -20 -20 -20 -20 -20 -20 -20 -20 -20 -20 -20 -20 -20 -20 -20 -20 -20 -20 -20 -20 -20 -20 -20 -20 -20 -20 -20 -20 -20 -20 -20
-20 -20 -20 -20 -20 -16 8 12 -5 -20 -20 -20 -20 -20 -20 -20 -20 -20 -20 -20 -20 -20 -20 -20 -20 -20 -20 -20 -20 -20 -20 -20 -20 -20 -20 -20 -20 -20 -20 -20 -20 -20 -20 -20 -20 -20 -20

GFSGBSN_prec_radar_120.txt.gz
Reflectivity
21 9 10 7 -6 -2 -10 -9 24 -14 -20 -1 23 31 22 -19 -20 -19 3 -15 5 38 -4 16 -20 -20 -20 -20 -20 -20 -20 -20 -20 -20 -20 -20 -20 -20 -20 -20 -20 -20 -20 -20 -20 -20 -20
8 -14 5 9 -2 -8 -18 -20 20 -20 -20 -8 3 30 16 -19 -20 -20 1 4 6 31 -19 -20 -20 -10 -20 -20 -20 -20 -20 -20 -20 -20 -20 -20 -20 -20 -20 -20 -20 -20 -20 -20 -20 -20 -20
-8 -16 6 10 12 -10 -11 -20 -20 -20 3 23 39 -5 -20 -20 -20 -20 -2 21 16 6 20 -20 -20 -16 -20 -20 -20 -20 -20 -20 -20 -20 -20 -20 -20 -20 -20 -20 -20 -20 -20 -20 -20 -20 -20
-20 8 4 10 12 5 -16 -20 20 -0 -19 19 -12 -20 -20 -20 -15 -20 6 26 30 6 17 -10 -20 -20 -20 -20 -20 -20 -20 -20 -20 -20 -20 -20 -20 -20 -20 -20 -20 -20 -20 -20 -20 -20 -20
-20 12 5 4 12 7 -2 -0 -19 8 -3 5 -20 -20 -20 -1 9 -18 26 25 14 -2 -9 -15 -20 -20 -20 -20 -20 -20 -20 -20 -20 -20 -20 -20 -20 -20 -20 -20 -20 -20 -20 -20 -20 -20 -20
-15 3 -5 7 -3 2 1 16 21 -0 -20 -20 -20 -20 -20 -0 29 0 27 17 9 -4 -4 -20 -20 -20 -20 -20 -20 -20 -20 -20 -20 -20 -20 -20 -20 -20 -20 -20 -20 -20 -20 -20 -20 -20 -20
-20 -4 1 6 -16 -15 -20 13 -1 -20 -3 5 -20 8 36 25 37 32 21 21 -4 11 -1 -20 -20 -20 -20 -20 -20 -20 -20 -20 -20 -20 -20 -20 -20 -20 -20 -20 -20 -20 -20 -20 -20 -20 -20
-20 -20 -13 8 4 -0 1 -7 -20 15 6 -17 -19 7 36 35 34 34 18 -20 -20 -20 -20 -20 -20 -20 -20 -20 -20 -20 -20 -20 -20 -20 -20 -20 -20 -20 -20 -20 -20 -20 -20 -20 -20 -20 -20
-20 -20 -20 -1 -20 -20 -20 4 -8 -14 21 -20 -18 10 10 21 25 7 -20 -20 -20 -20 -20 -20 -20 -20 -20 -20 -20 -20 -20 -20 -20 -20 -20 -20 -20 -20 -20 -20 -17 -20 -20 -20 -20 -20 -20
-20 -20 -7 -18 -20 -20 6 2 -12 -1 9 27 -6 -13 -14 -16 -2 -14 -12 -20 -20 -20 -20 -20 -20 -20 -20 -20 -20 -20 -20 -20 -20 -20 -20 -20 -20 -20 -20 -20 -20 -10 -20 -20 -20 -7 -20
-20 -20 -20 -20 -20 -20 -4 1 -3 13 -8 14 -20 -20 -20 -20 -20 -19 -20 -20 -20 -20 -20 -20 -20 -20 -20 -20 -20 -20 -20 -20 -20 -20 -7 -20 -20 -20 -20 -20 -20 -20 -20 -20 -11 -2 9
-14 -20 -20 -20 -20 -20 -20 7 -15 -20 -20 -20 -20 -20 -20 -20 -20 -20 -20 -20 -20 -20 -20 -20 -20 -20 -20 -20 -20 -20 -20 -20 -20 -20 -20 -20 -20 -20 -20 -20 -20 -20 -20 -11 -7 3 -19
-13 -20 -20 -20 -20 -20 -20 -18 -20 -20 -20 -20 -20 -20 -20 -20 -20 -20 -20 -20 -20 -20 -20 -20 -20 -20 -20 -20 -20 -20 -20 -20 -20 -20 -20 -20 -20 -20 -20 -20 -20 -17 -13 -20 -20 -20 -20
-20 -5 -20 -20 -20 -20 -20 -20 -20 -20 -20 -20 -20 -20 -20 -20 -20 -20 -20 -20 -20 -20 -20 -20 -20 -20 -20 -20 -20 -20 -20 -20 -20 -20 1 -20 -20 -20 -20 -20 -20 -18 16 -18 -20 -20 -20
-20 -20 -20 -20 -20 -20 -20 -20 -20 -20 -20 -20 -20 -20 -20 -20 -20 -20 -20 -20 -20 -20 -20 -20 -20 -20 -20 -20 -20 -20 -20 -20 -20 -20 -20 -20 -20 -20 -20 -20 -20 -20 10 -3 -12 -19 -11
-20 -20 -20 -20 -20 -20 -20 -20 -20 -20 -20 -20 -20 -20 -20 -20 -20 -20 -20 -20 -20 -20 -20 -20 -20 -20 -20 -20 -20 -20 -20 -20 -20 -20 -20 -20 -20 -20 -20 -20 -20 -20 -12 -20 -13 -20 -20
-20 -20 -20 -20 -20 -20 -20 -20 -20 -20 -20 -20 -20 -20 -20 -20 -20 -20 -20 -20 -20 -20 -20 -20 -20 -20 -20 -20 -20 -20 -20 -20 -20 -20 -20 -20 -20 -20 -20 -20 -20 -20 -20 -20 -20 -20 -20
-20 -20 -20 -20 -20 -20 -20 -20 -20 -20 -20 -20 -20 -20 -20 -20 -20 -20 -20 -20 -20 -20 -20 -20 -20 -20 -20 -20 -20 -20 -20 -20 -20 -20 -20 -20 -20 -20 -20 -20 -20 -20 -20 -20 -20 -20 -20
-20 -20 -20 -20 -20 -20 -20 -20 -20 -20 -20 -20 -20 -20 -20 -20 -20 -20 -20 -20 -20 -20 -20 -20 -20 -20 -20 -20 -20 -20 -20 -20 -20 -20 -20 -20 -20 -20 -20 -20 -20 -20 -20 -20 -20 -20 -20
-20 -20 -20 -20 -20 -20 -20 -20 -20 -20 -20 -20 -20 -20 -20 -20 -20 -20 -20 -20 -20 -20 -20 -20 -20 -20 -20 -20 -20 -20 -20 -20 -20 -20 -20 -20 -20 -20 -20 -20 -20 -20 -20 -20 -20 -20 -20
-20 -20 -20 -20 -20 -20 -20 -20 -20 -20 -20 -20 -20 -20 -20 -20 -20 -20 -20 -20 -20 -20 -20 -20 -20 -20 -20 -20 -20 -20 -20 -20 -20 -20 -20 -20 -20 -20 -20 -20 -20 -20 -20 -20 -20 -20 -20
-20 -20 -20 -20 -20 -20 -20 -20 -20 -20 -20 -20 -20 -20 -20 -20 -20 -20 -20 -20 -20 -20 -20 -20 -20 -20 -20 -20 -20 -20 -20 -20 -20 -20 -20 -20 -20 -20 -20 -20 -20 -20 -20 -20 -20 -20 -20
-20 -20 -20 -20 -20 -20 -20 -20 -20 -20 -20 -20 -20 -20 -20 -20 -20 -20 -20 -20 -20 -20 -20 -20 -20 -20 -20 -20 -20 -20 -20 -20 -20 -20 -20 -20 -20 -20 -20 -20 -20 -20 -20 -20 -20 -20 -20
-20 -20 -20 -20 -20 -20 -20 -20 -20 -20 -20 -20 -20 -20 -20 -20 -20 -20 -20 -20 -20 -20 -20 -20 -20 -20 -20 -20 -20 -20 -20 -20 -20 -20 -20 -20 -20 -20 -20 -20 -20 -20 -20 -20 -20 -20 -20
-20 -20 -20 -20 -20 -20 -20 -20 -20 -20 -20 -20 -20 -20 -20 -20 -20 -20 -20 -20 -20 -20 -20 -20 -20 -20 -20 -20 -20 -20 -20 -20 -20 -20 -20 -20 -20 -20 -20 -20 -20 -20 -20 -20 -20 -20 -20
-20 -20 -20 -20 -20 -20 -20 -20 -20 -20 -20 -20 -20 -20 -20 -20 -20 -20 -20 -20 -20 -20 -20 -20 -20 -20 -20 -20 -20 -20 -20 -20 -20 -20 -20 -20 -20 -20 -20 -20 -20 -20 -20 -20 -20 -20 -20
-9 -20 -20 -20 -20 -20 -20 -20 -20 -20 -20 -20 -20 -20 -20 -20 -20 -20 -20 -20 -20 -20 -20 -20 -20 -20 -20 -20 -20 -20 -20 -20 -20 -20 -20 -20 -20 -20 -20 -20 -20 -20 -20 -20 -20 -20 -20
13 -20 -20 -20 -20 -20 -20 -20 -20 -20 -20 -20 -20 -20 -20 -20 -20 -20 -20 -20 -20 -20 -20 -20 -20 -20 -20 -20 -20 -20 -20 -20 -20 -20 -20 -20 -20 -20 -20 -20 -20 -20 -20 -20 -20 -20 -20
9 7 -20 -20 -20 -20 -20 -19 10 -19 -20 -20 -20 -20 -20 -20 -20 -20 -20 -20 -20 -20 -20 -20 -20 -20 -20 -20 -20 -20 -20 -20 -20 -20 -20 -20 -20 -20 -20 -20 -20 -20 -20 -20 -20 -20 -20

GFSGBSN_prec_radar_123.txt.gz
Reflectivity
-20 6 11 18 12 18 -2 -20 -20 -20 -20 2 26 22 24 17 -20 -20 -20 -20 14 19 36 34 25 -20 -20 -20 -20 -20 -20 -20 -20 -20 -20 -20 -20 -20 -20 -20 -20 -20 -20 -20 -20 -20 -20
11 9 1 -7 14 10 2 2 -20 -16 -20 -20 26 -0 31 -14 -20 -20 -20 6 32 30 37 35 -20 -20 -20 -20 -17 -20 -20 -20 -20 -20 -20 -20 -20 -20 -20 -20 -20 -20 -20 -20 -20 -20 -20
2 -0 -20 -5 -18 12 6 -0 18 19 1 8 11 16 -7 -20 -20 -20 -20 11 24 37 17 9 -20 -20 -20 -20 -20 -20 -20 -20 -20 -20 -20 -20 -20 -20 -20 -20 -20 -20 -20 -20 -20 -20 -20
-20 -9 -20 -20 2 20 -20 -20 -10 2 21 22 -5 -20 -20 -20 -20 -20 21 -11 29 32 9 -20 -20 -20 -20 -20 -20 -20 -20 -20 -20 -20 -20 -20 -20 -20 -20 -20 -20 -20 -20 -20 -20 -20 -20
-6 -14 -20 -1 3 1 19 -1 2 -12 -7 -20 -20 -20 -20 -20 -20 -17 24 25 24 9 -14 -16 -20 -20 -20 -20 -20 -20 -20 -20 -20 -20 -20 -20 -20 -20 -20 -20 -20 -20 -20 -20 -20 -20 -20
8 -5 1 6 7 3 -17 -20 -20 -20 -20 -20 -20 -20 -0 25 17 29 16 18 -9 4 -6 -20 -20 -20 -20 -20 -20 -20 -20 -20 -20 -20 -20 -20 -20 -20 -20 -20 -20 -20 -20 -20 -20 -20 -20
-20 -20 -20 -20 -20 -20 -20 10 12 9 -2 -20 23 7 34 35 37 37 29 24 18 -20 -20 -20 -20 -20 -20 -20 -20 -20 -20 -20 -20 -20 -20 -20 -20 -20 -20 -20 -20 -20 -20 -20 -20 -20 -20
-20 -20 -20 -20 -20 -20 -20 -20 7 -11 -10 25 -15 25 27 33 29 26 8 -5 -3 -19 -20 -20 -20 -20 -20 -20 -20 -20 -20 -20 -20 -20 -20 -20 -20 -20 -20 -20 -20 -20 -20 -20 -20 -20 -20
-19 -20 -20 -20 -1 -4 -20 -20 8 11 10 12 20 5 2 8 14 3 -15 -2 -20 -20 -20 -20 -20 -20 -20 -20 -20 -20 -20 -20 -20 -20 -20 -20 -20 -20 -20 -20 -20 -20 -20 -20 -20 -20 -20
-19 -20 -20 -20 -17 -20 -20 -12 -20 -19 -16 -20 6 -20 -20 -20 -20 -20 -20 -20 -20 -20 -20 -20 -20 -20 -20 -20 -20 -20 -20 -20 -20 -20 -20 -20 -20 -20 -20 -20 -20 -20 -20 -20 -20 -13 -20
-2 -20 -20 -20 -20 -20 -20 -20 -20 -20 -20 -20 -20 -20 -20 -20 -20 -20 -20 -20 -20 -20 -20 -20 -20 -20 -20 -20 -20 -20 -20 -20 -20 -20 -20 -20 -20 -20 -20 -20 -20 -20 -20 -20 -18 4 7
2 -20 -20 -20 -20 -20 -20 -20 -20 -20 -20 -20 -20 -20 -20 -20 -20 -20 -20 -20 -20 -20 -20 -20 -20 -20 -20 -20 -20 -20 -20 -20 -20 -20 -20 -20 -20 -20 -20 -20 -20 -20 -13 -15 -4 -5 -6
6 -20 -20 -20 -20 -20 -20 -20 -20 -20 -20 -20 -20 -20 -20 -20 -20 -20 -20 -20 -20 -20 -20 -20 -20 -20 -20 -20 -20 -20 -20 -20 -20 -20 -20 -20 -20 -20 -20 -20 -20 -6 -6 -20 -20 -20 -20
-17 -8 -20 -20 -20 -20 -20 -20 -20 -20 -20 -20 -20 -20 -20 -20 -20 -20 -20 -20 -20 -20 -20 -20 -20 -20 -20 -20 -20 -20 -20 -20 -20 -20 -20 -20 -20 -20 -20 -20 -20 -8 1 -11 -20 -20 -20
-20 -20 -20 -20 -20 -20 -20 -20 -20 -20 -20 -20 -20 -20 -20 -20 -20 -20 -20 -20 -20 -20 -20 -20 -20 -20 -20 -20 -20 -20 -20 -20 -20 -20 -20 -20 -20 -20 -20 -20 -20 -20 2 -3 5 -20 -16
-20 -20 -20 -20 -20 -20 -20 -20 -20 -18 -20 -20 -20 -20 -20 -20 -20 -20 -20 -20 -20 -20 -20 -20 -20 -20 -20 -20 -20 -20 -20 -20 -20 -20 -20 -20 -20 -20 -20 -20 -20 -20 -20 -20 -5 -20 -20
-20 -20 -20 -20 -20 -20 -20 -20 -20 -20 -20 -20 -20 -20 -20 -20 -20 -20 -20 -20 -20 -20 -20 -20 -20 -20 -20 -20 -20 -20 -20 -20 -20 -20 -20 -20 -17 -20 -20 -20 -20 -20 -20 -20 -20 -20 -20
7 -20 -20 -20 -20 -20 -20 -20 -20 -20 -20 -20 -20 -20 -20 -20 -20 -20 -20 -20 -20 -20 -20 -20 -20 -20 -20 -20 -20 -20 -20 -20 -20 -20 -20 -20 -20 -20 -20 -20 -20 -20 -20 -20 -20 -20 -20
-20 2 -20 -20 -20 -20 -20 -20 -20 -20 -20 -20 -20 -20 -20 -20 -20 -20 -20 -20 -20 -20 -20 -20 -20 -20 -20 -20 -20 -20 -20 -20 -20 -20 -20 -20 -20 -20 -20 -20 -20 -20 -20 -20 -20 -20 -20
-20 -20 -20 -20 -20 -20 -20 -20 -20 -20 -20 -20 -20 -20 -20 -20 -20 -20 -20 -20 -20 -20 -20 -20 -20 -20 -20 -20 -20 -20 -20 -20 -20 -20 -20 -20 -20 -20 -20 -20 -20 -20 -20 -20 -20 -20 -20
-20 -20 -20 -20 -20 -20 -20 -20 -20 -20 -20 -20 -20 -20 -20 -20 -20 -20 -20 -20 -20 -20 -20 -20 -20 -20 -20 -20 -20 -20 -20 -20 -20 -20 -20 -20 -20 -20 -20 -20 -20 -20 -20 -20 -20 -20 -20
-20 -20 -20 -20 -20 -20 -20 -20 -20 -20 -20 -20 -20 -20 -20 -20 -20 -20 -20 -20 -20 -20 -20 -20 -20 -20 -20 -20 -20 -20 -20 -20 -20 -20 -20 -20 -20 -20 -20 -20 -20 -20 -20 -20 -20 -20 -20
-20 -20 -20 -20 -20 -20 -20 -20 -20 -20 -20 -20 -20 -20 -20 -20 -20 -20 -20 -20 -20 -20 -20 -20 -20 -20 -20 -20 -20 -20 -20 -20 -20 -20 -20 -20 -20 -20 -20 -20 -20 -20 -20 -20 -20 -20 -20
-12 -20 -20 -20 -20 -20 -20 -20 -20 -20 -20 -20 -20 -20 -20 -20 -20 -20 -20 -20 -20 -20 -20 -20 -20 -20 -20 -20 -20 -20 -20 -20 -20 -20 -20 -20 -20 -20 -20 -20 -20 -20 -20 -20 -20 -20 -20
-20 -20 -12 -20 -20 -20 -20 -20 -20 -20 -20 -20 -20 -20 -20 -20 -20 -20 -20 -20 -20 -20 -20 -20 -20 -20 -20 -20 -20 -20 -20 -20 -20 -20 -20 -20 -20 -20 -20 -20 -20 -20 -20 -20 -20 -20 -20
-20 -19 2 -16 -20 -20 -20 -20 -20 -20 -20 -20 -20 -20 -20 -20 -20 -20 -20 -20 -20 -20 -20 -20 -20 -20 -20 -20 -20 -20 -20 -20 -20 -20 -20 -20 -20 -20 -20 -20 -20 -20 -20 -20 -20 -20 -20
3 10 -9 4 -20 -20 -20 -20 -20 -20 -20 -20 -20 -20 -20 -20 -20 -20 -20 -20 -20 -20 -20 -20 -20 -20 -20 -20 -20 -20 -20 -20 -20 -20 -20 -20 -20 -20 -20 -20 -20 -20 -20 -20 -20 -20 -20
3 7 18 17 -6 -20 -20 -20 -20 -20 -20 -20 -20 -20 -20 -20 -20 -20 -20 -20 -20 -20 -20 -20 -20 -20 -20 -20 -20 -20 -20 -20 -20 -20 -20 -20 -20 -20 -20 -20 -20 -20 -20 -20 -20 -20 -20
-20 8 5 17 16 -18 -20 -20 -20 -9 1 -20 -20 -20 -20 -20 -20 -20 -20 -20 -20 -20 -20 -20 -20 -20 -20 -20 -20 -20 -20 -20 -20 -20 -20 -20 -20 -20 -20 -20 -20 -20 -20 -20 -20 -20 -20

GFSGBSN_prec_radar_126.txt.gz
Reflectivity
17 -15 13 11 13 12 3 -3 1 -16 -7 26 -5 -20 -15 -14 -20 -20 -20 8 26 -1 25 13 -20 -20 -20 -20 -20 -20 -20 -20 -20 -20 -20 -20 -20 -20 -20 -20 -20 -20 -20 -20 -20 -20 -20
13 9 9 16 -1 19 20 -0 -20 -20 -20 15 -2 -2 -5 -17 -20 -20 -20 -19 30 25 35 19 6 -12 -20 -20 -20 -20 -20 -20 -20 -20 -20 -20 -20 -20 -20 -20 -20 -20 -20 -20 -20 -20 -20
18 7 18 11 12 10 15 2 -10 8 10 17 2 -2 -17 -20 -20 -20 -20 -20 24 -2 12 27 16 -20 -20 -19 -20 -20 -20 -20 -20 -20 -20 -20 -20 -20 -20 -20 -20 -20 -20 -20 -20 -20 -20
16 15 14 15 -10 -20 6 5 10 9 5 -16 -20 -20 -20 -20 -20 -20 -17 18 26 11 28 -18 -20 -20 -20 -20 -20 -20 -20 -20 -20 -20 -20 -20 -20 -20 -20 -20 -20 -20 -20 -20 -20 -20 -20
0 -15 -14 -20 -20 -20 -8 -13 -18 -20 -20 -20 -20 -20 -20 -20 -20 -20 24 25 30 12 -15 -7 -20 -20 -20 -20 -20 -20 -20 -20 -20 -20 -20 -20 -20 -20 -20 -20 -20 -20 -20 -20 -20 -20 -20
2 3 8 5 2 -4 6 1 -20 -12 21 24 6 13 -16 2 6 35 18 36 30 -20 -20 -20 -20 -20 -20 -20 -20 -20 -20 -20 -20 -20 -20 -20 -20 -20 -20 -20 -20 -20 -20 -20 -20 -20 -20
4 8 1 5 5 1 -20 -5 -20 -20 -20 -15 7 19 23 19 40 20 34 19 -7 -20 -20 -20 -20 -20 -20 -20 -20 -20 -20 -20 -20 -20 -20 -20 -20 -20 -20 -20 -20 -20 -20 -20 -20 -20 -20
13 14 -18 8 7 0 -0 9 13 18 15 14 9 22 28 29 29 8 -20 -20 -8 -14 -20 -20 -20 -20 -20 -20 -20 -20 -20 -20 -20 -20 -20 -20 -20 -20 -20 -20 -20 -20 -20 -20 -20 -20 -20
6 17 -19 -20 6 -5 -16 -20 -10 -20 -20 -17 -20 5 -2 -1 19 7 -18 -20 -20 -18 -20 -20 -20 -20 -20 -20 -20 -20 -20 -20 -20 -20 -20 -20 -20 -20 -20 -20 -20 -20 -20 -20 -20 -20 -20
10 -4 17 -10 -20 -20 -20 -20 -20 -20 -20 -20 -19 -20 -20 -20 -20 -20 -19 -20 -20 -20 -20 -20 -20 -20 -20 -20 -20 -20 -20 -20 -20 -20 -20 -20 -20 -20 -20 -20 -20 -20 -20 -20 -20 -20 -12
-20 -13 -10 4 -20 -20 -20 -20 -20 -20 -20 -20 -20 -20 -20 -20 -20 -20 -20 -20 -20 -20 -20 -20 -20 -20 -20 -20 -20 -20 -20 -20 -20 -20 -20 -20 -20 -20 -20 -20 -20 -20 -20 -18 -10 -3 9
-0 -20 -4 7 7 -14 -20 -15 -20 -20 -20 -20 -20 -20 -20 -20 -20 -20 -20 -20 -20 14 -20 -20 -20 -20 -20 -20 -20 -20 -20 -20 -20 -17 -20 -20 -20 -20 -20 -20 -20 -20 -20 -18 6 -1 -2
-15 -20 -20 -20 -20 -10 6 1 6 -13 -20 -20 -20 -20 -20 -20 -20 -20 -20 -20 12 -20 -20 -20 -20 -20 -20 -20 -20 -20 -20 -20 -20 -4 4 -20 -20 -20 -20 -20 -20 -20 -17 -3 -12 3 -11
-20 -20 -20 -20 -20 -20 -19 -4 -0 -8 -20 -20 -20 -20 -20 -20 -20 -20 -20 -20 -20 -20 -20 -20 -20 -20 -20 -20 -20 -20 -20 -20 -20 -20 -20 -20 -20 -20 -20 -20 -20 3 -7 8 -2 -3 -4
-20 -20 -20 -20 -20 -20 -20 -20 -20 -20 -20 -20 -20 -20 -20 -20 -20 -20 -20 -20 -20 -20 -20 -20 -20 -20 -20 -20 -20 -20 -20 -20 -20 -20 -20 -20 -20 -20 -20 -20 -20 -9 1 5 7 -6 5
-20 -20 -20 -20 -20 -20 -20 -20 -20 -20 -20 -20 -20 -20 -20 -20 -20 -20 -20 -20 -20 -20 -20 -20 -20 -20 -20 -20 -20 -20 -20 -20 -20 -20 -20 -20 -17 -20 -20 -20 -20 -20 -19 -3 -2 -20 -20
-20 -20 -20 -20 -20 -20 -20 -20 -20 -20 -20 -20 -20 -20 -20 -20 -20 -20 -20 -20 -20 -20 -20 -20 -20 -20 -20 -20 -20 -20 -20 -20 -20 -20 -20 -20 -20 -20 -20 -20 -20 -20 -20 -20 -15 -20 -20
-20 -20 -20 -20 -20 -20 -20 -20 -20 -20 -20 -20 -20 -20 -20 -20 -20 -20 -20 -20 -20 -20 -20 -20 -20 -20 -20 -20 -20 -20 -20 -20 -20 -20 -20 -20 -20 -20 -20 -20 -20 -20 -20 -20 -20 -20 -20
-20 -20 -20 -20 -20 -20 -20 -20 -20 -20 -20 -20 -20 -20 -20 -20 -20 -20 -20 -20 -20 -20 -20 -20 -20 -20 -20 -20 -20 -20 -20 -20 -20 -20 -20 -20 -20 -20 -20 -20 -20 -20 -20 -20 -20 -20 -20
-20 -20 -20 -20 -20 -20 -20 -20 -20 -20 -20 -20 -20 -20 -20 -20 -20 -20 -20 -20 -20 -20 -20 -20 -20 -20 -20 -20 -20 -20 -20 -20 -20 -20 -20 -20 -20 -20 -20 -20 -20 -20 -20 -20 -20 -20 -20
-20 -20 -20 -20 -20 -20 -20 -20 -20 -20 -20 -20 -20 -20 -20 -20 -20 -20 -20 -20 -20 -20 -20 -20 -20 -20 -20 -20 -20 -20 -20 -20 -20 -20 -20 -20 -20 -20 -20 -20 -20 -20 -20 -20 -20 -20 -20
-20 -20 -20 -20 -20 -20 -20 -20 -20 -20 -20 -20 -20 -20 -20 -20 -20 -20 -20 -20 -20 -20 -20 -20 -20 -20 -20 -20 -20 -20 -20 -20 -20 -20 -20 -20 -20 -20 -20 -20 -20 -20 -20 -20 -20 -20 -20
-20 -20 -8 -16 -20 -20 -20 -20 -20 -20 -20 -20 -20 -20 -20 -20 -20 -20 -20 -20 -20 -20 -20 -20 -20 -20 -20 -20 -20 -20 -20 -20 -20 -20 -20 -20 -20 -20 -20 -20 -20 -20 -20 -20 -20 -20 -20
-18 -20 -20 10 -20 -20 -20 -20 -20 -20 -20 -20 -20 -20 -20 -20 -20 -20 -20 -20 -20 -20 -20 -20 -20 -20 -20 -20 -20 -20 -20 -20 -20 -20 -20 -20 -20 -20 -20 -20 -20 -20 -20 -20 -20 -20 -20
-20 -20 -20 -6 9 -11 -20 -20 -20 -20 -20 -20 -20 -20 -20 -20 -20 -20 -20 -20 -20 -20 -20 -20 -20 -20 -20 -20 -20 -20 -20 -20 -20 -20 -20 -20 -20 -20 -20 -20 -20 -20 -20 -20 -20 -20 -20
-20 -20 -20 1 14 4 2 -20 -20 -20 -20 -20 -20 -20 -20 -20 -20 -20 -20 -20 -20 -20 -20 -20 -20 -20 -20 -20 -20 -20 -20 -20 -20 -20 -20 -20 -20 -20 -20 -20 -20 -20 -20 -20 -20 -20 -20
-10 -20 -18 -20 17 9 -13 8 -20 -20 -20 -20 -20 -20 -20 -20 -20 -20 -20 -20 -20 -20 -20 -20 -20 -20 -20 -20 -20 -20 -20 -20 -20 -20 -20 -20 -20 -20 -20 -20 -20 -20 -20 -20 -20 -20 -20
6 1 -17 -1 16 17 8 5 5 -19 -20 -20 -20 -20 -20 -20 -20 -20 -20 -20 -20 -20 -20 -20 -20 -20 -20 -20 -20 -20 -20 -20 -20 -20 -20 -20 -20 -20 -20 -20 -20 -20 -20 -20 -20 -20 -20
-20 -6 -4 7 -6 16 13 1 -5 -10 9 -7 -20 -20 -20 -20 -20 -20 -20 -20 -20 -20 -20 -20 -20 -20 -20 -20 -20 -20 -20 -20 -20 -20 -20 -20 -20 -20 -20 -20 -20 -20 -20 -20 -20 -20 -20

GFSGBSN_prec_radar_129.txt.gz
Reflectivity
6 12 6 1 10 16 19 1 -20 10 -1 21 21 18 -15 -20 -20 -20 -1 21 34 33 32 -19 -20 -20 -20 -20 -20 -20 -20 -20 -20 -20 -20 -20 -20 -20 -20 -20 -20 -20 -20 -20 -20 -20 -20
9 15 7 7 9 8 -1 13 13 2 23 10 -7 -20 -15 -20 -20 -20 16 28 17 35 31 16 -20 -20 -20 -20 -20 -20 -20 -20 -20 -20 -20 -20 -20 -20 -20 -20 -20 -20 -20 -20 -20 -20 -20
-17 -9 -9 -20 -20 -8 -20 -20 -1 -20 -20 -20 -20 -20 -20 -20 -20 -18 12 30 30 28 24 0 -20 -20 -20 -20 -20 -20 -20 -20 -20 -20 -20 -20 -20 -20 -20 -20 -20 -20 -20 -20 -20 -20 -20
6 3 7 0 10 15 -20 -20 -20 -20 -20 -20 -20 -20 -17 -20 -20 -20 18 39 35 23 -7 21 -20 -20 -20 -20 -20 -20 -20 -20 -20 -20 -20 -20 -20 -20 -20 -20 -20 -20 -20 -20 -20 -20 -20
13 7 11 10 20 8 -16 13 9 -3 -5 -20 -20 -20 -20 -20 -20 -14 23 34 30 -8 -7 -20 -20 -20 -20 -20 -20 -20 -20 -20 -20 -20 -20 -20 -20 -20 -20 -20 -20 -20 -20 -20 -20 -20 -20
13 0 15 10 9 12 10 -3 3 26 23 8 9 1 9 -18 -11 33 9 5 -0 5 -20 -20 -20 -20 -20 -20 -20 -20 -20 -20 -20 -20 -20 -20 -20 -20 -20 -20 -20 -20 -20 -20 -20 -20 -20
16 20 20 23 18 20 19 18 14 20 23 22 5 -20 -20 29 -15 -20 -20 -20 -20 -20 -20 -20 -20 -20 -20 -20 -20 -20 -20 -20 -20 -20 -20 -20 -20 -20 -20 -20 -20 -20 -20 -20 -20 -20 -20
14 18 10 3 10 8 20 16 18 -7 19 24 2 4 30 31 4 -18 -20 -20 -20 -20 -20 -20 -20 -20 -20 -20 -20 -20 -20 -20 -20 -20 -20 -20 -20 -20 -20 -20 -20 -20 -20 -20 -20 -20 -20
9 12 18 15 14 5 4 -2 -20 -20 -20 12 24 21 20 5 -17 -19 -18 -20 -20 -20 -20 -20 -20 -20 -20 -20 -20 -20 -20 -20 -20 -20 -20 -20 -20 -20 -20 -20 -20 -20 -20 -20 -20 -20 -20
-20 10 5 7 2 4 5 -6 -20 -20 -20 -20 -5 -3 -20 -20 -20 -20 -20 -20 -20 -20 -20 -20 -20 -20 -20 -20 -20 -20 -20 -20 -20 -20 -20 -20 -20 -20 -20 -20 -20 -20 -20 -20 -20 -1 -18
-12 -20 12 -8 -20 -18 -0 2 -0 -20 -20 -20 -20 -20 -9 -20 -20 -20 -20 -20 -20 -20 -20 -20 -20 -20 -20 -20 -20 -20 -20 -20 -20 -20 -20 -20 -20 -20 -20 -20 -20 -20 -20 -20 -3 11 4
-20 -20 -20 6 3 1 -6 -1 -20 -20 -20 -20 -20 -20 -20 -20 -20 -20 -20 -20 -20 -2 -20 -20 -20 -20 -20 -20 -20 -20 -20 -20 -20 -20 -20 -20 -20 -20 -20 -20 -20 -20 -14 -20 -12 -4 -5
-20 -20 -20 -20 -2 -3 -20 -14 -20 -20 -20 -20 -20 -20 -20 -20 -20 -20 -20 -20 7 -20 -20 -20 -20 -20 -20 -20 -20 -20 -20 -20 -20 -20 -20 -20 -20 -20 -20 -20 -20 -20 -1 3 4 1 -9
-20 -20 -20 -20 -20 -20 -20 -20 -20 -20 -20 -20 -20 -20 -20 -20 -20 -20 -20 -20 -20 -20 -20 -20 -20 -20 -20 -20 -20 -20 -20 -20 -20 -20 -18 -20 -20 -20 -20 -20 -20 -18 -2 7 -1 -4 -20
-20 -20 -20 -20 -20 -20 -20 -20 -20 -20 -20 -20 -20 -20 -20 -20 -20 -20 -20 -20 -20 -20 -20 -20 -20 -20 -20 -20 -20 -20 -20 -20 -20 -20 -8 -20 -20 -20 -20 -20 -20 -18 -17 -15 -1 -20 -14
-4 -20 -20 -20 -20 -20 -20 -20 -20 -20 -20 -20 -20 -20 -20 -20 -20 -20 -20 -20 -20 -20 -20 -20 -20 -20 -20 -20 -20 -20 -20 -20 -20 -20 -20 -20 -20 -20 -20 -20 -20 -20 -19 -20 5 -20 -18
-16 -20 -20 -20 -20 -20 -20 -20 -20 -20 -20 -20 -20 -20 -20 -20 -20 -20 -20 -20 -20 -20 -20 -20 -20 -20 -20 -20 -20 -20 -20 -20 -20 -20 -20 -20 -20 -20 -20 -20 -20 -20 -20 -20 -20 -20 -11
-20 -20 -20 -20 -20 -20 -20 -20 -20 -20 -20 -20 -20 -20 -20 -20 -20 -20 -20 -20 -20 -20 -20 -20 -20 -20 -20 -20 -20 -20 -20 -20 -20 -20 -20 -20 -20 -20 -20 -20 -20 -20 -20 -20 -20 -18 -20
-20 -20 -20 -20 -20 -20 -20 -20 -20 -20 -20 -20 -20 -20 -20 -20 -20 -20 -20 -20 -20 -20 -20 -20 -20 -20 -20 -20 -20 -20 -20 -20 -20 -20 -20 -20 -20 -20 -20 -20 -20 -20 -20 -20 -20 -20 -20
-20 -20 -20 -20 -20 -20 -20 -20 -20 -20 -20 -20 -20 -17 -20 -20 -20 -20 -20 -20 -20 -20 -20 -20 -20 -20 -20 -20 -20 -20 -20 -20 -20 -20 -20 -20 -20 -20 -20 -20 -20 -20 -20 -20 -20 -20 -20
-20 -14 -20 -20 -20 -20 -20 -20 -20 -20 -20 -20 -20 -20 -20 -20 -20 -20 -20 -20 -20 -20 -20 -20 -20 -20 -20 -20 -20 -20 -20 -20 -20 -20 -20 -20 -20 -20 -20 -20 -20 -20 -20 -20 -20 -20 -20
-20 -20 -20 -20 -20 -20 -20 -20 -20 -20 -20 -20 -20 -20 -20 -20 -20 -20 -20 -20 -20 -20 -20 -20 -20 -20 -20 -20 -20 -20 -20 -20 -20 -20 -20 -20 -20 -20 -20 -20 -20 -20 -20 -20 -20 -20 -20
-15 -20 -16 -20 -20 -20 -20 -20 -20 -20 -20 -20 -20 -20 -20 -20 -20 -20 -20 -20 -20 -20 -20 -20 -20 -20 -20 -20 -20 -20 -20 -20 -20 -20 -20 -20 -20 -20 -20 -20 -20 -20 -20 -20 -20 -20 -20
-8 -20 -20 -20 -20 -19 -19 -20 -20 -20 -20 -20 -20 -20 -20 -20 -20 -20 -20 -20 -20 -20 -20 -20 -20 -20 -20 -20 -20 -20 -20 -20 -20 -20 -20 -20 -20 -20 -20 -20 -20 -20 -20 -20 -20 -20 -20
-20 -20 -16 -20 -20 -20 -6 2 -20 -20 -20 -20 -20 -20 -20 -20 -20 -20 -20 -20 -20 -20 -20 -20 -20 -20 -20 -20 -20 -20 -20 -20 -20 -20 -20 -20 -20 -20 -20 -20 -20 -20 -20 -20 -20 -20 -20
-20 -20 -3 -9 -20 -20 -20 6 -16 -13 -20 -20 -20 -20 -20 -20 -20 -20 -20 -20 -20 -20 -20 -20 -20 -20 -20 -20 -20 -20 -20 -20 -20 -20 -20 -20 -20 -20 -20 -20 -20 -20 -20 -20 -20 -20 -20
-20 -20 -11 -6 -13 7 -19 -0 -3 -0 7 -13 -20 -20 -20 -20 -20 -20 -20 -20 -20 -20 -20 -20 -20 -20 -20 -20 -20 -20 -20 -20 -20 -20 -20 -20 -20 -20 -20 -20 -20 -20 -20 -20 -20 -20 -20
11 -3 -20 -3 -11 5 -0 -20 4 9 4 -3 -9 -20 -20 -20 -20 -20 -20 -20 -20 -20 -20 -20 -20 -20 -20 -20 -20 -20 -20 -20 -20 -20 -20 -20 -20 -20 -20 -20 -20 -20 -20 -20 -20 -20 -20
-19 6 1 3 12 1 11 5 -5 5 11 15 -11 -7 -13 -20 -20 -20 -20 -20 -20 -20 -20 -20 -20 -20 -20 -20 -20 -20 -20 -20 -20 -20 -20 -20 -20 -20 -20 -20 -20 -20 -20 -20 -20 -20 -20